Time,TemperatureF,DewpointF,PressureIn,WindDirection,WindDirectionDegrees,WindSpeedMPH,WindSpeedGustMPH,Humidity,HourlyPrecipIn,Conditions,Clouds,dailyrainin,SolarRadiationWatts/m^2,SoftwareType,DateUTC
2013-03-22 00:01:00,47.8,37.7,29.96,ENE,76,3.5,3.5,68,0.00,RA,,0.00,0.0,WeatherDisplay:10.37,2013-03-21 23:01:00,
2013-03-22 00:04:00,47.7,37.7,29.96,ENE,76,2.3,2.3,68,0.00,RA,,0.00,0.0,WeatherDisplay:10.37,2013-03-21 23:04:00,
2013-03-22 00:07:00,47.6,37.6,29.95,ENE,76,3.5,3.5,68,0.00,RA,,0.00,0.0,WeatherDisplay:10.37,2013-03-21 23:07:00,
2013-03-22 00:09:00,47.6,37.6,29.95,ENE,76,3.5,3.5,68,0.00,RA,,0.00,0.0,WeatherDisplay:10.37,2013-03-21 23:09:00,
2013-03-22 00:10:00,47.5,37.5,29.96,ENE,76,3.5,3.5,68,0.00,CLR,,0.00,0.0,WeatherDisplay:10.37,2013-03-21 23:10:00,
2013-03-22 00:12:00,47.6,37.6,29.96,ENE,76,2.3,2.3,68,0.00,CLR,,0.00,0.0,WeatherDisplay:10.37,2013-03-21 23:12:00,
2013-03-22 00:15:00,47.6,37.6,29.96,ENE,76,4.6,4.6,68,0.00,CLR,,0.00,0.0,WeatherDisplay:10.37,2013-03-21 23:15:00,
2013-03-22 00:17:00,47.6,37.2,29.95,ENE,76,3.5,3.5,67,0.00,CLR,,0.00,0.0,WeatherDisplay:10.37,2013-03-21 23:17:00,
2013-03-22 00:20:00,47.6,37.2,29.95,ENE,76,4.6,4.6,67,0.00,CLR,,0.00,0.0,WeatherDisplay:10.37,2013-03-21 23:20:00,
2013-03-22 00:22:00,47.7,36.9,29.95,ENE,76,3.5,3.5,66,0.00,CLR,,0.00,0.0,WeatherDisplay:10.37,2013-03-21 23:22:00,
2013-03-22 00:25:00,47.8,37.0,29.95,ENE,76,3.5,3.5,66,0.00,CLR,,0.00,0.0,WeatherDisplay:10.37,2013-03-21 23:25:00,
2013-03-22 00:27:00,47.8,37.0,29.95,ENE,76,2.3,2.3,66,0.00,CLR,,0.00,0.0,WeatherDisplay:10.37,2013-03-21 23:27:00,
2013-03-22 00:28:00,47.8,37.0,29.95,ENE,76,3.5,3.5,66,0.00,CLR,,0.00,0.0,WeatherDisplay:10.37,2013-03-21 23:28:00,
2013-03-22 00:30:00,47.9,37.1,29.95,ENE,76,3.5,3.5,66,0.00,CLR,,0.00,0.0,WeatherDisplay:10.37,2013-03-21 23:30:00,
2013-03-22 00:32:00,47.9,37.1,29.95,ENE,76,4.0,4.0,66,0.00,CLR,,0.00,0.0,WeatherDisplay:10.37,2013-03-21 23:32:00,
2013-03-22 00:33:00,47.9,37.1,29.95,ENE,76,3.5,3.5,66,0.00,CLR,,0.00,0.0,WeatherDisplay:10.37,2013-03-21 23:33:00,
2013-03-22 00:35:00,47.9,37.1,29.95,ENE,76,3.5,3.5,66,0.00,CLR,,0.00,0.0,WeatherDisplay:10.37,2013-03-21 23:35:00,
2013-03-22 00:37:00,48.0,36.8,29.95,ENE,77,3.5,3.5,65,0.00,CLR,,0.00,0.0,WeatherDisplay:10.37,2013-03-21 23:37:00,
2013-03-22 00:38:00,47.9,36.7,29.95,ENE,77,3.5,3.5,65,0.00,CLR,,0.00,0.0,WeatherDisplay:10.37,2013-03-21 23:38:00,
2013-03-22 00:40:00,48.0,36.8,29.95,ENE,77,3.5,3.5,65,0.00,CLR,,0.00,0.0,WeatherDisplay:10.37,2013-03-21 23:40:00,
2013-03-22 00:41:00,48.0,36.8,29.95,ENE,77,4.6,4.6,65,0.00,CLR,,0.00,0.0,WeatherDisplay:10.37,2013-03-21 23:41:00,
2013-03-22 00:43:00,48.0,36.8,29.95,ENE,78,7.0,7.0,65,0.00,CLR,,0.00,0.0,WeatherDisplay:10.37,2013-03-21 23:43:00,
2013-03-22 00:45:00,48.0,36.8,29.95,ENE,78,6.9,6.9,65,0.00,CLR,,0.00,0.0,WeatherDisplay:10.37,2013-03-21 23:45:00,
2013-03-22 00:46:00,48.1,36.9,29.95,ENE,78,4.6,4.6,65,0.00,CLR,,0.00,0.0,WeatherDisplay:10.37,2013-03-21 23:46:00,
2013-03-22 00:48:00,48.1,36.9,29.95,ENE,78,3.5,3.5,65,0.00,CLR,,0.00,0.0,WeatherDisplay:10.37,2013-03-21 23:48:00,
2013-03-22 00:50:00,48.2,37.0,29.95,ENE,78,4.0,4.0,65,0.00,CLR,,0.00,0.0,WeatherDisplay:10.37,2013-03-21 23:50:00,
2013-03-22 00:52:00,48.2,37.0,29.95,ENE,78,4.6,4.6,65,0.00,CLR,,0.00,0.0,WeatherDisplay:10.37,2013-03-21 23:52:00,
2013-03-22 00:53:00,48.2,36.6,29.95,ENE,78,6.9,6.9,64,0.00,CLR,,0.00,0.0,WeatherDisplay:10.37,2013-03-21 23:53:00,
2013-03-22 00:54:00,48.2,36.6,29.95,ENE,78,4.6,4.6,64,0.00,CLR,,0.00,0.0,WeatherDisplay:10.37,2013-03-21 23:54:00,
2013-03-22 00:55:00,48.2,36.6,29.95,ENE,78,6.9,6.9,64,0.00,CLR,,0.00,0.0,WeatherDisplay:10.37,2013-03-21 23:55:00,
2013-03-22 00:57:00,48.2,36.6,29.95,ENE,78,8.1,8.1,64,0.00,CLR,,0.00,0.0,WeatherDisplay:10.37,2013-03-21 23:57:00,
2013-03-22 00:58:00,48.2,36.6,29.95,ENE,78,7.0,7.0,64,0.00,CLR,,0.00,0.0,WeatherDisplay:10.37,2013-03-21 23:58:00,
2013-03-22 00:59:00,48.2,36.6,29.95,ENE,78,6.9,6.9,64,0.00,CLR,,0.00,0.0,WeatherDisplay:10.37,2013-03-21 23:59:00,
2013-03-22 01:00:00,48.2,36.6,29.95,ENE,78,4.6,4.6,64,0.00,CLR,,0.00,0.0,WeatherDisplay:10.37,2013-03-22 00:00:00,
2013-03-22 01:02:00,48.2,36.2,29.95,ENE,78,4.6,4.6,63,0.00,CLR,,0.00,0.0,WeatherDisplay:10.37,2013-03-22 00:02:00,
2013-03-22 01:03:00,48.3,36.3,29.95,ENE,78,6.9,6.9,63,0.00,CLR,,0.00,0.0,WeatherDisplay:10.37,2013-03-22 00:03:00,
2013-03-22 01:04:00,48.3,36.3,29.95,ENE,78,3.5,3.5,63,0.00,CLR,,0.00,0.0,WeatherDisplay:10.37,2013-03-22 00:04:00,
2013-03-22 01:05:00,48.3,36.3,29.95,ENE,78,3.5,3.5,63,0.00,CLR,,0.00,0.0,WeatherDisplay:10.37,2013-03-22 00:05:00,
2013-03-22 01:07:00,48.3,36.3,29.95,ENE,78,3.5,3.5,63,0.00,CLR,,0.00,0.0,WeatherDisplay:10.37,2013-03-22 00:07:00,
2013-03-22 01:08:00,48.3,36.3,29.95,ENE,78,4.6,4.6,63,0.00,CLR,,0.00,0.0,WeatherDisplay:10.37,2013-03-22 00:08:00,
2013-03-22 01:10:00,48.4,36.4,29.95,ENE,78,3.5,3.5,63,0.00,CLR,,0.00,0.0,WeatherDisplay:10.37,2013-03-22 00:10:00,
2013-03-22 01:12:00,48.3,36.3,29.95,ENE,78,3.5,3.5,63,0.00,CLR,,0.00,0.0,WeatherDisplay:10.37,2013-03-22 00:12:00,
2013-03-22 01:13:00,48.3,36.3,29.95,ENE,78,4.0,4.0,63,0.00,CLR,,0.00,0.0,WeatherDisplay:10.37,2013-03-22 00:13:00,
2013-03-22 01:15:00,48.4,36.4,29.95,ENE,78,3.5,3.5,63,0.00,CLR,,0.00,0.0,WeatherDisplay:10.37,2013-03-22 00:15:00,
2013-03-22 01:17:00,48.4,36.4,29.95,ENE,78,3.5,0.0,63,0.00,CLR,,0.00,0.0,WeatherDisplay:10.37,2013-03-22 00:17:00,
2013-03-22 01:18:00,48.4,36.4,29.95,ENE,78,1.1,1.1,63,0.00,CLR,,0.00,0.0,WeatherDisplay:10.37,2013-03-22 00:18:00,
2013-03-22 01:20:00,48.4,36.4,29.94,ENE,78,2.3,2.3,63,0.00,CLR,,0.00,0.0,WeatherDisplay:10.37,2013-03-22 00:20:00,
2013-03-22 01:21:00,48.3,36.3,29.94,ENE,78,3.5,3.5,63,0.00,CLR,,0.00,0.0,WeatherDisplay:10.37,2013-03-22 00:21:00,
2013-03-22 01:22:00,48.3,36.3,29.94,ENE,78,3.5,3.5,63,0.00,CLR,,0.00,0.0,WeatherDisplay:10.37,2013-03-22 00:22:00,
2013-03-22 01:24:00,48.3,36.3,29.94,ENE,78,3.5,3.5,63,0.00,CLR,,0.00,0.0,WeatherDisplay:10.37,2013-03-22 00:24:00,
2013-03-22 01:26:00,48.3,36.3,29.95,ENE,78,4.0,4.0,63,0.00,CLR,,0.00,0.0,WeatherDisplay:10.37,2013-03-22 00:26:00,
2013-03-22 01:28:00,48.2,36.2,29.94,ENE,78,4.6,4.6,63,0.00,CLR,,0.00,0.0,WeatherDisplay:10.37,2013-03-22 00:28:00,
2013-03-22 01:29:00,48.3,36.3,29.94,ENE,78,4.6,4.6,63,0.00,CLR,,0.00,0.0,WeatherDisplay:10.37,2013-03-22 00:29:00,
2013-03-22 01:31:00,48.2,36.2,29.94,ENE,78,4.0,4.0,63,0.00,CLR,,0.00,0.0,WeatherDisplay:10.37,2013-03-22 00:31:00,
2013-03-22 01:33:00,48.2,36.2,29.94,ENE,78,4.0,4.0,63,0.00,CLR,,0.00,0.0,WeatherDisplay:10.37,2013-03-22 00:33:00,
2013-03-22 01:34:00,48.2,36.2,29.94,ENE,77,5.0,5.0,63,0.00,CLR,,0.00,0.0,WeatherDisplay:10.37,2013-03-22 00:34:00,
2013-03-22 01:36:00,48.2,36.2,29.94,ENE,74,6.9,6.9,63,0.00,CLR,,0.00,0.0,WeatherDisplay:10.37,2013-03-22 00:36:00,
2013-03-22 01:38:00,48.2,36.2,29.94,ENE,74,5.0,5.0,63,0.00,CLR,,0.00,0.0,WeatherDisplay:10.37,2013-03-22 00:38:00,
2013-03-22 01:39:00,48.1,36.1,29.94,ENE,74,4.6,4.6,63,0.00,CLR,,0.00,0.0,WeatherDisplay:10.37,2013-03-22 00:39:00,
2013-03-22 01:41:00,48.1,36.1,29.94,ENE,73,6.9,6.9,63,0.00,CLR,,0.00,0.0,WeatherDisplay:10.37,2013-03-22 00:41:00,
2013-03-22 01:43:00,48.1,36.1,29.94,ENE,73,4.0,4.0,63,0.00,CLR,,0.00,0.0,WeatherDisplay:10.37,2013-03-22 00:43:00,
2013-03-22 01:44:00,48.1,36.1,29.94,ENE,73,4.6,4.6,63,0.00,CLR,,0.00,0.0,WeatherDisplay:10.37,2013-03-22 00:44:00,
2013-03-22 01:46:00,48.2,36.2,29.94,ENE,73,6.9,6.9,63,0.00,CLR,,0.00,0.0,WeatherDisplay:10.37,2013-03-22 00:46:00,
2013-03-22 01:48:00,48.2,36.2,29.94,ENE,73,6.9,6.9,63,0.00,CLR,,0.00,0.0,WeatherDisplay:10.37,2013-03-22 00:48:00,
2013-03-22 01:49:00,48.2,36.2,29.93,ENE,73,6.9,6.9,63,0.00,CLR,,0.00,0.0,WeatherDisplay:10.37,2013-03-22 00:49:00,
2013-03-22 01:51:00,48.2,35.8,29.93,ENE,73,6.9,6.9,62,0.00,CLR,,0.00,0.0,WeatherDisplay:10.37,2013-03-22 00:51:00,
2013-03-22 01:54:00,48.3,35.9,29.93,ENE,73,4.0,4.0,62,0.00,CLR,,0.00,0.0,WeatherDisplay:10.37,2013-03-22 00:54:00,
2013-03-22 01:57:00,48.3,35.9,29.93,ENE,73,5.0,5.0,62,0.00,CLR,,0.00,0.0,WeatherDisplay:10.37,2013-03-22 00:57:00,
2013-03-22 01:59:00,48.3,35.9,29.93,ENE,73,4.6,4.6,62,0.00,CLR,,0.00,0.0,WeatherDisplay:10.37,2013-03-22 00:59:00,
2013-03-22 02:02:00,48.3,35.9,29.93,ENE,73,3.5,3.5,62,0.00,CLR,,0.00,0.0,WeatherDisplay:10.37,2013-03-22 01:02:00,
2013-03-22 02:04:00,48.2,35.8,29.93,ENE,73,3.5,3.5,62,0.00,CLR,,0.00,0.0,WeatherDisplay:10.37,2013-03-22 01:04:00,
2013-03-22 02:07:00,48.2,35.8,29.93,ENE,73,3.5,3.5,62,0.00,CLR,,0.00,0.0,WeatherDisplay:10.37,2013-03-22 01:07:00,
2013-03-22 02:08:00,48.3,35.9,29.93,ENE,73,2.3,2.3,62,0.00,CLR,,0.00,0.0,WeatherDisplay:10.37,2013-03-22 01:08:00,
2013-03-22 02:09:00,48.2,35.8,29.93,ENE,73,3.0,3.0,62,0.00,CLR,,0.00,0.0,WeatherDisplay:10.37,2013-03-22 01:09:00,
2013-03-22 02:12:00,48.3,35.9,29.93,ENE,73,4.0,4.0,62,0.00,CLR,,0.00,0.0,WeatherDisplay:10.37,2013-03-22 01:12:00,
2013-03-22 02:13:00,48.2,35.8,29.93,ENE,73,5.0,5.0,62,0.00,CLR,,0.00,0.0,WeatherDisplay:10.37,2013-03-22 01:13:00,
2013-03-22 02:14:00,48.3,35.9,29.93,ENE,73,5.0,5.0,62,0.00,CLR,,0.00,0.0,WeatherDisplay:10.37,2013-03-22 01:14:00,
2013-03-22 06:14:00,43.0,35.3,29.91,SW,228,1.1,0.0,74,0.00,CLR,,0.00,9.0,WeatherDisplay:10.37,2013-03-22 05:14:00,
2013-03-22 06:15:00,43.0,35.3,29.91,SW,228,1.1,0.0,74,0.00,CLR,,0.00,9.0,WeatherDisplay:10.37,2013-03-22 05:15:00,
2013-03-22 06:19:00,42.7,35.3,29.91,SW,228,0.0,0.0,75,0.00,CLR,,0.00,11.0,WeatherDisplay:10.37,2013-03-22 05:19:00,
2013-03-22 06:20:00,42.7,35.3,29.91,SW,228,0.0,0.0,75,0.00,CLR,,0.00,11.0,WeatherDisplay:10.37,2013-03-22 05:20:00,
2013-03-22 06:24:00,42.6,35.6,29.91,SW,228,0.0,0.0,76,0.00,CLR,,0.00,14.0,WeatherDisplay:10.37,2013-03-22 05:24:00,
2013-03-22 06:25:00,42.6,35.6,29.91,SW,228,0.0,0.0,76,0.00,CLR,,0.00,14.0,WeatherDisplay:10.37,2013-03-22 05:25:00,
2013-03-22 06:30:00,42.6,35.9,29.91,SW,228,0.0,0.0,77,0.00,CLR,,0.00,18.0,WeatherDisplay:10.37,2013-03-22 05:30:00,
2013-03-22 06:35:00,42.6,35.9,29.92,SW,228,0.0,0.0,77,0.00,CLR,,0.00,18.0,WeatherDisplay:10.37,2013-03-22 05:35:00,
2013-03-22 06:40:00,42.6,35.9,29.91,SW,228,0.0,0.0,77,0.00,CLR,,0.00,18.0,WeatherDisplay:10.37,2013-03-22 05:40:00,
2013-03-22 06:41:00,42.6,35.9,29.91,SW,228,0.0,0.0,77,0.00,CLR,,0.00,18.0,WeatherDisplay:10.37,2013-03-22 05:41:00,
2013-03-22 06:45:00,42.6,36.2,29.91,SW,228,0.0,0.0,78,0.00,CLR,,0.00,23.0,WeatherDisplay:10.37,2013-03-22 05:45:00,
2013-03-22 06:46:00,42.6,36.2,29.91,SW,228,0.0,0.0,78,0.00,CLR,,0.00,23.0,WeatherDisplay:10.37,2013-03-22 05:46:00,
2013-03-22 06:47:00,42.6,36.2,29.91,SW,228,0.0,0.0,78,0.00,CLR,,0.00,25.0,WeatherDisplay:10.37,2013-03-22 05:47:00,
2013-03-22 06:50:00,42.6,36.2,29.92,SW,228,0.0,0.0,78,0.00,CLR,,0.00,25.0,WeatherDisplay:10.37,2013-03-22 05:50:00,
2013-03-22 06:51:00,42.6,36.2,29.92,SW,228,0.0,0.0,78,0.00,CLR,,0.00,25.0,WeatherDisplay:10.37,2013-03-22 05:51:00,
2013-03-22 06:52:00,42.6,36.2,29.92,SW,228,0.0,0.0,78,0.00,CLR,,0.00,26.0,WeatherDisplay:10.37,2013-03-22 05:52:00,
2013-03-22 06:55:00,42.7,36.3,29.92,SW,228,0.0,0.0,78,0.00,CLR,,0.00,28.0,WeatherDisplay:10.37,2013-03-22 05:55:00,
2013-03-22 06:56:00,42.7,36.6,29.92,SW,228,0.0,0.0,79,0.00,CLR,,0.00,28.0,WeatherDisplay:10.37,2013-03-22 05:56:00,
2013-03-22 06:57:00,42.7,36.6,29.92,SW,228,0.0,0.0,79,0.00,CLR,,0.00,28.0,WeatherDisplay:10.37,2013-03-22 05:57:00,
2013-03-22 07:00:00,42.8,36.7,29.92,SW,228,0.0,0.0,79,0.00,CLR,,0.00,32.0,WeatherDisplay:10.37,2013-03-22 06:00:00,
2013-03-22 07:01:00,42.8,36.7,29.92,SW,228,0.0,0.0,79,0.00,CLR,,0.00,53.0,WeatherDisplay:10.37,2013-03-22 06:01:00,
2013-03-22 07:02:00,42.8,36.7,29.92,SW,228,0.0,0.0,79,0.00,CLR,,0.00,53.0,WeatherDisplay:10.37,2013-03-22 06:02:00,
2013-03-22 07:05:00,42.9,36.8,29.92,SW,228,2.3,2.3,79,0.00,CLR,,0.00,100.0,WeatherDisplay:10.37,2013-03-22 06:05:00,
2013-03-22 07:06:00,42.9,36.8,29.92,SW,228,2.3,0.0,79,0.00,CLR,,0.00,102.0,WeatherDisplay:10.37,2013-03-22 06:06:00,
2013-03-22 07:07:00,42.9,36.8,29.92,SW,228,1.1,0.0,79,0.00,CLR,,0.00,102.0,WeatherDisplay:10.37,2013-03-22 06:07:00,
2013-03-22 07:10:00,43.1,37.0,29.92,SW,228,0.0,0.0,79,0.00,CLR,,0.00,116.0,WeatherDisplay:10.37,2013-03-22 06:10:00,
2013-03-22 07:12:00,43.1,37.0,29.92,SW,228,0.0,0.0,79,0.00,CLR,,0.00,120.0,WeatherDisplay:10.37,2013-03-22 06:12:00,
2013-03-22 07:13:00,43.2,37.1,29.92,SW,228,0.0,0.0,79,0.00,CLR,,0.00,125.0,WeatherDisplay:10.37,2013-03-22 06:13:00,
2013-03-22 07:15:00,43.3,37.2,29.92,SW,228,0.0,0.0,79,0.00,CLR,,0.00,130.0,WeatherDisplay:10.37,2013-03-22 06:15:00,
2013-03-22 07:17:00,43.5,37.4,29.92,SW,223,1.1,0.0,79,0.00,CLR,,0.00,134.0,WeatherDisplay:10.37,2013-03-22 06:17:00,
2013-03-22 07:18:00,43.6,37.5,29.92,SW,225,2.0,2.0,79,0.00,CLR,,0.00,144.0,WeatherDisplay:10.37,2013-03-22 06:18:00,
2013-03-22 07:20:00,43.7,37.6,29.92,ESE,116,3.0,3.0,79,0.00,CLR,,0.00,151.0,WeatherDisplay:10.37,2013-03-22 06:20:00,
2013-03-22 07:22:00,43.9,37.8,29.92,ESE,105,3.5,3.5,79,0.00,CLR,,0.00,162.0,WeatherDisplay:10.37,2013-03-22 06:22:00,
2013-03-22 07:23:00,43.9,37.8,29.92,ESE,109,3.5,3.5,79,0.00,CLR,,0.00,162.0,WeatherDisplay:10.37,2013-03-22 06:23:00,
2013-03-22 07:26:00,44.1,37.7,29.92,ESE,106,3.5,3.5,78,0.00,CLR,,0.00,167.0,WeatherDisplay:10.37,2013-03-22 06:26:00,
2013-03-22 07:27:00,44.3,37.9,29.92,ESE,106,2.3,0.0,78,0.00,CLR,,0.00,176.0,WeatherDisplay:10.37,2013-03-22 06:27:00,
2013-03-22 07:28:00,44.4,38.0,29.92,ESE,106,0.0,0.0,78,0.00,CLR,,0.00,179.0,WeatherDisplay:10.37,2013-03-22 06:28:00,
2013-03-22 07:31:00,45.0,38.6,29.92,ESE,106,2.0,2.0,78,0.00,CLR,,0.00,192.0,WeatherDisplay:10.37,2013-03-22 06:31:00,
2013-03-22 07:32:00,45.2,38.4,29.92,ESE,106,2.3,2.3,77,0.00,CLR,,0.00,195.0,WeatherDisplay:10.37,2013-03-22 06:32:00,
2013-03-22 07:33:00,45.4,38.6,29.92,ESE,106,2.3,2.3,77,0.00,CLR,,0.00,200.0,WeatherDisplay:10.37,2013-03-22 06:33:00,
2013-03-22 07:34:00,45.4,38.6,29.92,ESE,106,2.3,2.3,77,0.00,CLR,,0.00,200.0,WeatherDisplay:10.37,2013-03-22 06:34:00,
2013-03-22 07:36:00,45.8,38.7,29.92,ESE,106,2.3,2.3,76,0.00,CLR,,0.00,207.0,WeatherDisplay:10.37,2013-03-22 06:36:00,
2013-03-22 07:37:00,46.0,38.9,29.92,ESE,106,3.5,3.5,76,0.00,CLR,,0.00,211.0,WeatherDisplay:10.37,2013-03-22 06:37:00,
2013-03-22 07:38:00,46.1,38.6,29.92,ESE,106,3.5,3.5,75,0.00,CLR,,0.00,214.0,WeatherDisplay:10.37,2013-03-22 06:38:00,
2013-03-22 07:39:00,46.1,38.6,29.92,ESE,106,3.5,3.5,75,0.00,CLR,,0.00,214.0,WeatherDisplay:10.37,2013-03-22 06:39:00,
2013-03-22 07:42:00,46.6,38.8,29.92,ESE,106,0.0,0.0,74,0.00,CLR,,0.00,223.0,WeatherDisplay:10.37,2013-03-22 06:42:00,
2013-03-22 07:43:00,46.8,38.9,29.92,ESE,106,0.0,0.0,74,0.00,CLR,,0.00,225.0,WeatherDisplay:10.37,2013-03-22 06:43:00,
2013-03-22 07:44:00,47.0,39.1,29.92,ESE,106,0.0,0.0,74,0.00,CLR,,0.00,229.0,WeatherDisplay:10.37,2013-03-22 06:44:00,
2013-03-22 07:47:00,47.6,39.0,29.92,ESE,106,0.0,0.0,72,0.00,CLR,,0.00,232.0,WeatherDisplay:10.37,2013-03-22 06:47:00,
2013-03-22 07:48:00,47.8,39.2,29.92,ESE,106,0.0,0.0,72,0.00,CLR,,0.00,239.0,WeatherDisplay:10.37,2013-03-22 06:48:00,
2013-03-22 07:49:00,48.0,39.4,29.92,ESE,106,2.3,2.3,72,0.00,CLR,,0.00,241.0,WeatherDisplay:10.37,2013-03-22 06:49:00,
2013-03-22 07:52:00,48.6,39.6,29.92,ESE,106,1.1,0.0,71,0.00,CLR,,0.00,250.0,WeatherDisplay:10.37,2013-03-22 06:52:00,
2013-03-22 07:53:00,48.7,39.7,29.92,ESE,106,2.3,2.3,71,0.00,CLR,,0.00,250.0,WeatherDisplay:10.37,2013-03-22 06:53:00,
2013-03-22 07:54:00,48.9,39.5,29.92,ESE,106,2.3,2.3,70,0.00,CLR,,0.00,258.0,WeatherDisplay:10.37,2013-03-22 06:54:00,
2013-03-22 07:57:00,49.3,39.6,29.92,ESE,106,1.1,1.1,69,0.00,CLR,,0.00,265.0,WeatherDisplay:10.37,2013-03-22 06:57:00,
2013-03-22 07:58:00,49.3,39.6,29.92,ESE,106,0.0,0.0,69,0.00,CLR,,0.00,258.0,WeatherDisplay:10.37,2013-03-22 06:58:00,
2013-03-22 07:59:00,49.6,39.5,29.92,ESE,106,2.0,2.0,68,0.00,CLR,,0.00,264.0,WeatherDisplay:10.37,2013-03-22 06:59:00,
2013-03-22 08:00:00,49.6,39.5,29.92,ESE,106,2.3,2.3,68,0.00,CLR,,0.00,264.0,WeatherDisplay:10.37,2013-03-22 07:00:00,
2013-03-22 08:02:00,49.8,39.3,29.92,ESE,106,3.5,3.5,67,0.00,CLR,,0.00,267.0,WeatherDisplay:10.37,2013-03-22 07:02:00,
2013-03-22 08:03:00,49.8,39.3,29.92,ESE,106,3.5,3.5,67,0.00,CLR,,0.00,283.0,WeatherDisplay:10.37,2013-03-22 07:03:00,
2013-03-22 08:04:00,49.8,39.3,29.92,ESE,106,3.5,3.5,67,0.00,CLR,,0.00,283.0,WeatherDisplay:10.37,2013-03-22 07:04:00,
2013-03-22 08:05:00,49.8,39.3,29.92,ESE,106,3.5,3.5,67,0.00,CLR,,0.00,288.0,WeatherDisplay:10.37,2013-03-22 07:05:00,
2013-03-22 08:07:00,49.9,39.0,29.92,ESE,106,3.5,3.5,66,0.00,CLR,,0.00,297.0,WeatherDisplay:10.37,2013-03-22 07:07:00,
2013-03-22 08:09:00,50.0,39.1,29.92,ESE,106,2.3,2.3,66,0.00,CLR,,0.00,301.0,WeatherDisplay:10.37,2013-03-22 07:09:00,
2013-03-22 08:10:00,50.2,39.3,29.92,ESE,106,2.3,2.3,66,0.00,CLR,,0.00,306.0,WeatherDisplay:10.37,2013-03-22 07:10:00,
2013-03-22 08:12:00,50.4,39.1,29.92,ESE,106,2.3,2.3,65,0.00,CLR,,0.00,311.0,WeatherDisplay:10.37,2013-03-22 07:12:00,
2013-03-22 08:14:00,50.6,39.3,29.92,ESE,106,0.0,0.0,65,0.00,CLR,,0.00,320.0,WeatherDisplay:10.37,2013-03-22 07:14:00,
2013-03-22 08:15:00,50.8,39.5,29.92,ESE,106,2.3,2.3,65,0.00,CLR,,0.00,323.0,WeatherDisplay:10.37,2013-03-22 07:15:00,
2013-03-22 08:17:00,51.1,39.3,29.92,ESE,106,2.3,2.3,64,0.00,CLR,,0.00,330.0,WeatherDisplay:10.37,2013-03-22 07:17:00,
2013-03-22 08:19:00,51.3,39.5,29.92,East,101,3.0,3.0,64,0.00,CLR,,0.00,336.0,WeatherDisplay:10.37,2013-03-22 07:19:00,
2013-03-22 08:20:00,51.4,39.6,29.92,East,101,3.5,3.5,64,0.00,CLR,,0.00,336.0,WeatherDisplay:10.37,2013-03-22 07:20:00,
2013-03-22 08:23:00,51.6,39.4,29.92,East,101,3.5,3.5,63,0.00,CLR,,0.00,343.0,WeatherDisplay:10.37,2013-03-22 07:23:00,
2013-03-22 08:24:00,51.7,39.9,29.92,East,101,3.5,3.5,64,0.00,CLR,,0.00,350.0,WeatherDisplay:10.37,2013-03-22 07:24:00,
2013-03-22 08:25:00,51.9,39.7,29.92,East,100,2.3,2.3,63,0.00,CLR,,0.00,353.0,WeatherDisplay:10.37,2013-03-22 07:25:00,
2013-03-22 08:28:00,52.1,39.9,29.92,East,101,2.3,2.3,63,0.00,CLR,,0.00,362.0,WeatherDisplay:10.37,2013-03-22 07:28:00,
2013-03-22 08:29:00,52.1,39.9,29.92,East,101,3.5,3.5,63,0.00,CLR,,0.00,364.0,WeatherDisplay:10.37,2013-03-22 07:29:00,
2013-03-22 08:30:00,52.2,40.0,29.92,East,101,1.1,0.0,63,0.00,CLR,,0.00,364.0,WeatherDisplay:10.37,2013-03-22 07:30:00,
2013-03-22 08:33:00,52.5,40.3,29.92,ESE,102,4.6,4.6,63,0.00,CLR,,0.00,376.0,WeatherDisplay:10.37,2013-03-22 07:33:00,
2013-03-22 08:34:00,52.7,40.5,29.92,ESE,103,3.5,3.5,63,0.00,CLR,,0.00,381.0,WeatherDisplay:10.37,2013-03-22 07:34:00,
2013-03-22 08:35:00,52.8,41.0,29.92,ESE,107,3.0,3.0,64,0.00,CLR,,0.00,383.0,WeatherDisplay:10.37,2013-03-22 07:35:00,
2013-03-22 08:38:00,53.0,41.1,29.92,SE,145,4.6,4.6,64,0.00,CLR,,0.00,394.0,WeatherDisplay:10.37,2013-03-22 07:38:00,
2013-03-22 08:39:00,53.1,41.2,29.92,SSE,147,3.5,3.5,64,0.00,CLR,,0.00,397.0,WeatherDisplay:10.37,2013-03-22 07:39:00,
2013-03-22 08:40:00,53.1,40.8,29.92,SE,146,3.5,3.5,63,0.00,CLR,,0.00,401.0,WeatherDisplay:10.37,2013-03-22 07:40:00,
2013-03-22 08:43:00,53.3,41.0,29.92,SE,136,3.5,3.5,63,0.00,CLR,,0.00,410.0,WeatherDisplay:10.37,2013-03-22 07:43:00,
2013-03-22 08:44:00,53.4,41.1,29.92,SE,127,3.5,3.5,63,0.00,CLR,,0.00,410.0,WeatherDisplay:10.37,2013-03-22 07:44:00,
2013-03-22 08:45:00,53.4,41.1,29.92,ESE,109,3.5,3.5,63,0.00,CLR,,0.00,410.0,WeatherDisplay:10.37,2013-03-22 07:45:00,
2013-03-22 08:48:00,53.6,41.7,29.92,ESE,109,3.5,3.5,64,0.00,CLR,,0.00,422.0,WeatherDisplay:10.37,2013-03-22 07:48:00,
2013-03-22 08:49:00,53.8,41.9,29.92,ESE,109,3.5,0.0,64,0.00,CLR,,0.00,427.0,WeatherDisplay:10.37,2013-03-22 07:49:00,
2013-03-22 08:50:00,53.9,42.0,29.92,ESE,109,1.1,0.0,64,0.00,CLR,,0.00,429.0,WeatherDisplay:10.37,2013-03-22 07:50:00,
2013-03-22 08:53:00,54.2,41.9,29.92,ESE,109,3.5,3.5,63,0.00,CLR,,0.00,436.0,WeatherDisplay:10.37,2013-03-22 07:53:00,
2013-03-22 08:54:00,54.2,41.9,29.92,ESE,116,5.0,5.0,63,0.00,CLR,,0.00,438.0,WeatherDisplay:10.37,2013-03-22 07:54:00,
2013-03-22 08:55:00,54.3,42.0,29.92,SSE,148,4.6,4.6,63,0.00,CLR,,0.00,441.0,WeatherDisplay:10.37,2013-03-22 07:55:00,
2013-03-22 08:58:00,54.3,42.0,29.92,SE,146,4.6,4.6,63,0.00,CLR,,0.00,448.0,WeatherDisplay:10.37,2013-03-22 07:58:00,
2013-03-22 08:59:00,54.4,42.1,29.92,South,178,5.8,5.8,63,0.00,CLR,,0.00,450.0,WeatherDisplay:10.37,2013-03-22 07:59:00,
2013-03-22 09:00:00,54.4,42.1,29.92,South,186,7.0,7.0,63,0.00,CLR,,0.00,452.0,WeatherDisplay:10.37,2013-03-22 08:00:00,
2013-03-22 09:04:00,54.1,42.2,29.92,South,186,4.6,4.6,64,0.00,CLR,,0.00,466.0,WeatherDisplay:10.37,2013-03-22 08:04:00,
2013-03-22 09:05:00,54.1,42.6,29.92,South,185,3.5,3.5,65,0.00,CLR,,0.00,466.0,WeatherDisplay:10.37,2013-03-22 08:05:00,
2013-03-22 09:07:00,54.1,42.6,29.92,SSW,192,6.0,6.0,65,0.00,CLR,,0.00,475.0,WeatherDisplay:10.37,2013-03-22 08:07:00,
2013-03-22 09:09:00,53.8,41.9,29.92,SSW,205,5.8,5.8,64,0.00,CLR,,0.00,482.0,WeatherDisplay:10.37,2013-03-22 08:09:00,
2013-03-22 09:10:00,53.8,42.3,29.92,SSW,205,4.6,4.6,65,0.00,CLR,,0.00,482.0,WeatherDisplay:10.37,2013-03-22 08:10:00,
2013-03-22 09:12:00,53.8,42.7,29.92,South,173,5.0,5.0,66,0.00,CLR,,0.00,490.0,WeatherDisplay:10.37,2013-03-22 08:12:00,
2013-03-22 09:14:00,53.9,42.4,29.92,SSE,163,5.8,5.8,65,0.00,CLR,,0.00,497.0,WeatherDisplay:10.37,2013-03-22 08:14:00,
2013-03-22 09:15:00,53.9,42.4,29.92,SSE,163,4.6,4.6,65,0.00,CLR,,0.00,497.0,WeatherDisplay:10.37,2013-03-22 08:15:00,
2013-03-22 09:16:00,53.9,42.4,29.92,SSE,163,4.6,4.6,65,0.00,CLR,,0.00,497.0,WeatherDisplay:10.37,2013-03-22 08:16:00,
2013-03-22 09:17:00,54.0,42.5,29.92,SSE,160,3.5,3.5,65,0.00,CLR,,0.00,504.0,WeatherDisplay:10.37,2013-03-22 08:17:00,
2013-03-22 09:19:00,54.1,42.6,29.92,South,180,8.1,8.1,65,0.00,CLR,,0.00,508.0,WeatherDisplay:10.37,2013-03-22 08:19:00,
2013-03-22 09:20:00,54.0,42.5,29.93,South,184,6.9,6.9,65,0.00,CLR,,0.00,512.0,WeatherDisplay:10.37,2013-03-22 08:20:00,
2013-03-22 09:21:00,54.1,42.6,29.92,South,179,5.0,5.0,65,0.00,CLR,,0.00,512.0,WeatherDisplay:10.37,2013-03-22 08:21:00,
2013-03-22 09:22:00,54.1,42.6,29.93,South,181,4.6,4.6,65,0.00,CLR,,0.00,517.0,WeatherDisplay:10.37,2013-03-22 08:22:00,
2013-03-22 09:24:00,54.1,42.6,29.92,SSW,207,7.0,7.0,65,0.00,CLR,,0.00,526.0,WeatherDisplay:10.37,2013-03-22 08:24:00,
2013-03-22 09:25:00,54.1,42.6,29.92,SW,215,6.9,6.9,65,0.00,CLR,,0.00,526.0,WeatherDisplay:10.37,2013-03-22 08:25:00,
2013-03-22 09:26:00,54.1,42.6,29.92,SW,217,6.9,6.9,65,0.00,CLR,,0.00,526.0,WeatherDisplay:10.37,2013-03-22 08:26:00,
2013-03-22 09:27:00,54.2,42.7,29.92,SW,217,3.5,3.5,65,0.00,CLR,,0.00,526.0,WeatherDisplay:10.37,2013-03-22 08:27:00,
2013-03-22 09:30:00,54.4,43.3,29.92,SW,214,4.0,4.0,66,0.00,CLR,,0.00,534.0,WeatherDisplay:10.37,2013-03-22 08:30:00,
2013-03-22 09:31:00,54.4,42.9,29.92,South,180,5.8,5.8,65,0.00,CLR,,0.00,538.0,WeatherDisplay:10.37,2013-03-22 08:31:00,
2013-03-22 09:33:00,54.4,42.9,29.92,SSW,193,4.6,4.6,65,0.00,CLR,,0.00,540.0,WeatherDisplay:10.37,2013-03-22 08:33:00,
2013-03-22 09:35:00,54.5,43.0,29.92,SSW,211,5.8,5.8,65,0.00,CLR,,0.00,561.0,WeatherDisplay:10.37,2013-03-22 08:35:00,
2013-03-22 09:36:00,54.5,43.0,29.92,SSW,211,4.6,4.6,65,0.00,CLR,,0.00,561.0,WeatherDisplay:10.37,2013-03-22 08:36:00,
2013-03-22 09:37:00,54.4,42.9,29.92,SSW,211,3.5,3.5,65,0.00,CLR,,0.00,555.0,WeatherDisplay:10.37,2013-03-22 08:37:00,
2013-03-22 09:38:00,54.5,43.0,29.92,South,180,5.8,5.8,65,0.00,CLR,,0.00,555.0,WeatherDisplay:10.37,2013-03-22 08:38:00,
2013-03-22 09:40:00,54.7,43.2,29.92,South,180,2.3,0.0,65,0.00,CLR,,0.00,563.0,WeatherDisplay:10.37,2013-03-22 08:40:00,
2013-03-22 09:41:00,54.7,43.2,29.92,South,180,0.0,0.0,65,0.00,CLR,,0.00,566.0,WeatherDisplay:10.37,2013-03-22 08:41:00,
2013-03-22 09:42:00,54.7,42.8,29.92,South,180,1.1,1.1,64,0.00,CLR,,0.00,571.0,WeatherDisplay:10.37,2013-03-22 08:42:00,
2013-03-22 09:43:00,54.7,42.8,29.92,South,180,1.1,0.0,64,0.00,CLR,,0.00,578.0,WeatherDisplay:10.37,2013-03-22 08:43:00,
2013-03-22 09:45:00,54.9,43.4,29.92,SSE,160,4.6,4.6,65,0.00,CLR,,0.00,570.0,WeatherDisplay:10.37,2013-03-22 08:45:00,
2013-03-22 09:46:00,55.0,43.0,29.92,SSE,160,4.6,4.6,64,0.00,CLR,,0.00,557.0,WeatherDisplay:10.37,2013-03-22 08:46:00,
2013-03-22 09:47:00,55.1,43.1,29.92,SSE,160,3.5,0.0,64,0.00,CLR,,0.00,526.0,WeatherDisplay:10.37,2013-03-22 08:47:00,
2013-03-22 09:49:00,55.3,43.3,29.92,SE,140,6.9,6.9,64,0.00,CLR,,0.00,571.0,WeatherDisplay:10.37,2013-03-22 08:49:00,
2013-03-22 09:50:00,55.6,43.2,29.92,SSW,205,5.0,5.0,63,0.00,CLR,,0.00,578.0,WeatherDisplay:10.37,2013-03-22 08:50:00,
2013-03-22 09:51:00,55.7,43.3,29.92,SW,214,5.8,5.8,63,0.00,CLR,,0.00,578.0,WeatherDisplay:10.37,2013-03-22 08:51:00,
2013-03-22 09:52:00,55.7,43.3,29.92,SSW,213,6.9,6.9,63,0.00,CLR,,0.00,585.0,WeatherDisplay:10.37,2013-03-22 08:52:00,
2013-03-22 09:54:00,55.6,42.8,29.92,SSW,210,3.5,3.5,62,0.00,CLR,,0.00,591.0,WeatherDisplay:10.37,2013-03-22 08:54:00,
2013-03-22 09:55:00,55.8,43.0,29.92,SSW,213,0.0,0.0,62,0.00,CLR,,0.00,594.0,WeatherDisplay:10.37,2013-03-22 08:55:00,
2013-03-22 09:56:00,55.8,43.0,29.92,SSW,213,0.0,0.1,62,0.00,CLR,,0.00,594.0,WeatherDisplay:10.37,2013-03-22 08:56:00,
2013-03-22 09:57:00,55.8,43.0,29.92,SSW,213,0.0,0.0,62,0.00,CLR,,0.00,594.0,WeatherDisplay:10.37,2013-03-22 08:57:00,
2013-03-22 09:59:00,55.8,43.0,29.92,SW,221,4.0,4.0,62,0.00,CLR,,0.00,598.0,WeatherDisplay:10.37,2013-03-22 08:59:00,
2013-03-22 10:01:00,55.7,42.5,29.92,NNE,25,4.6,4.6,61,0.00,CLR,,0.00,605.0,WeatherDisplay:10.37,2013-03-22 09:01:00,
2013-03-22 10:03:00,55.7,42.5,29.92,NNE,25,2.3,0.0,61,0.00,CLR,,0.00,605.0,WeatherDisplay:10.37,2013-03-22 09:03:00,
2013-03-22 10:04:00,55.7,42.5,29.92,NNE,25,0.0,0.0,61,0.00,CLR,,0.00,578.0,WeatherDisplay:10.37,2013-03-22 09:04:00,
2013-03-22 10:06:00,56.0,42.7,29.92,SSE,148,3.5,3.5,61,0.00,CLR,,0.00,617.0,WeatherDisplay:10.37,2013-03-22 09:06:00,
2013-03-22 10:08:00,56.4,43.1,29.92,SSE,148,3.5,3.5,61,0.00,CLR,,0.00,621.0,WeatherDisplay:10.37,2013-03-22 09:08:00,
2013-03-22 10:09:00,56.5,43.2,29.92,SSE,148,4.6,4.6,61,0.00,CLR,,0.00,621.0,WeatherDisplay:10.37,2013-03-22 09:09:00,
2013-03-22 10:11:00,56.6,42.4,29.92,SSE,148,0.0,0.0,59,0.00,CLR,,0.00,615.0,WeatherDisplay:10.37,2013-03-22 09:11:00,
2013-03-22 10:12:00,56.7,42.5,29.92,SSE,148,2.3,2.3,59,0.00,CLR,,0.00,615.0,WeatherDisplay:10.37,2013-03-22 09:12:00,
2013-03-22 10:13:00,57.1,43.3,29.92,SSW,196,1.1,2.9,60,0.00,CLR,,0.00,622.0,WeatherDisplay:10.37,2013-03-22 09:13:00,
2013-03-22 10:14:00,57.2,43.0,29.92,SSW,198,7.0,7.0,59,0.00,CLR,,0.00,622.0,WeatherDisplay:10.37,2013-03-22 09:14:00,
2013-03-22 10:16:00,56.9,42.3,29.92,SSW,213,6.9,6.9,58,0.00,CLR,,0.00,633.0,WeatherDisplay:10.37,2013-03-22 09:16:00,
2013-03-22 10:17:00,56.7,41.6,29.92,SW,227,6.9,6.9,57,0.00,CLR,,0.00,636.0,WeatherDisplay:10.37,2013-03-22 09:17:00,
2013-03-22 10:19:00,56.5,41.4,29.92,SW,231,5.0,5.0,57,0.00,CLR,,0.00,645.0,WeatherDisplay:10.37,2013-03-22 09:19:00,
2013-03-22 10:22:00,56.6,42.0,29.92,WSW,237,3.5,3.5,58,0.00,CLR,,0.00,652.0,WeatherDisplay:10.37,2013-03-22 09:22:00,
2013-03-22 10:23:00,56.7,42.1,29.91,WSW,238,3.0,3.0,58,0.00,CLR,,0.00,647.0,WeatherDisplay:10.37,2013-03-22 09:23:00,
2013-03-22 10:24:00,56.8,42.2,29.92,WSW,237,3.5,3.5,58,0.00,CLR,,0.00,647.0,WeatherDisplay:10.37,2013-03-22 09:24:00,
2013-03-22 10:27:00,56.8,42.2,29.91,SW,234,5.0,5.0,58,0.00,CLR,,0.00,633.0,WeatherDisplay:10.37,2013-03-22 09:27:00,
2013-03-22 10:28:00,56.8,42.2,29.92,SW,234,5.8,5.8,58,0.00,CLR,,0.00,638.0,WeatherDisplay:10.37,2013-03-22 09:28:00,
2013-03-22 10:29:00,56.7,42.1,29.91,SW,234,3.5,3.5,58,0.00,CLR,,0.00,638.0,WeatherDisplay:10.37,2013-03-22 09:29:00,
2013-03-22 10:32:00,57.1,42.9,29.91,SW,232,3.5,3.5,59,0.00,CLR,,0.00,640.0,WeatherDisplay:10.37,2013-03-22 09:32:00,
2013-03-22 10:33:00,57.3,43.1,29.91,SW,232,2.3,2.3,59,0.00,CLR,,0.00,647.0,WeatherDisplay:10.37,2013-03-22 09:33:00,
2013-03-22 10:34:00,57.4,43.2,29.91,SW,231,3.5,3.5,59,0.00,CLR,,0.00,652.0,WeatherDisplay:10.37,2013-03-22 09:34:00,
2013-03-22 10:37:00,57.7,43.0,29.91,SW,227,3.5,3.5,58,0.00,CLR,,0.00,649.0,WeatherDisplay:10.37,2013-03-22 09:37:00,
2013-03-22 10:38:00,57.8,43.1,29.91,SW,227,2.0,2.0,58,0.00,CLR,,0.00,654.0,WeatherDisplay:10.37,2013-03-22 09:38:00,
2013-03-22 10:39:00,58.1,43.4,29.91,SSE,157,5.0,5.2,58,0.00,CLR,,0.00,663.0,WeatherDisplay:10.37,2013-03-22 09:39:00,
2013-03-22 10:40:00,58.1,43.4,29.91,SSE,157,5.0,5.2,58,0.00,CLR,,0.00,663.0,WeatherDisplay:10.37,2013-03-22 09:40:00,
2013-03-22 10:42:00,58.5,43.3,29.91,SSE,157,1.1,1.1,57,0.00,CLR,,0.00,671.0,WeatherDisplay:10.37,2013-03-22 09:42:00,
2013-03-22 10:43:00,58.7,43.5,29.91,South,188,5.0,5.0,57,0.00,CLR,,0.00,673.0,WeatherDisplay:10.37,2013-03-22 09:43:00,
2013-03-22 10:44:00,58.9,43.7,29.91,SSE,156,5.0,5.0,57,0.00,CLR,,0.00,673.0,WeatherDisplay:10.37,2013-03-22 09:44:00,
2013-03-22 10:45:00,58.9,43.7,29.91,SSE,156,6.0,6.0,57,0.00,CLR,,0.00,673.0,WeatherDisplay:10.37,2013-03-22 09:45:00,
2013-03-22 10:47:00,58.9,42.8,29.91,SSE,157,4.6,4.6,55,0.00,CLR,,0.00,680.0,WeatherDisplay:10.37,2013-03-22 09:47:00,
2013-03-22 10:48:00,58.9,42.8,29.91,SSE,157,2.3,2.3,55,0.00,CLR,,0.00,680.0,WeatherDisplay:10.37,2013-03-22 09:48:00,
2013-03-22 10:50:00,58.9,42.8,29.91,SSW,195,6.0,6.0,55,0.00,CLR,,0.00,679.0,WeatherDisplay:10.37,2013-03-22 09:50:00,
2013-03-22 10:52:00,58.8,42.7,29.91,SSW,199,6.9,6.9,55,0.00,CLR,,0.00,687.0,WeatherDisplay:10.37,2013-03-22 09:52:00,
2013-03-22 10:53:00,58.7,42.6,29.91,SSW,199,6.9,6.9,55,0.00,CLR,,0.00,694.0,WeatherDisplay:10.37,2013-03-22 09:53:00,
2013-03-22 10:55:00,58.4,42.3,29.91,SSW,199,4.0,4.0,55,0.00,CLR,,0.00,701.0,WeatherDisplay:10.37,2013-03-22 09:55:00,
2013-03-22 10:57:00,58.1,42.5,29.91,SSW,205,8.1,8.1,56,0.00,CLR,,0.00,710.0,WeatherDisplay:10.37,2013-03-22 09:57:00,
2013-03-22 10:58:00,58.1,42.5,29.91,SSW,211,6.9,6.9,56,0.00,CLR,,0.00,710.0,WeatherDisplay:10.37,2013-03-22 09:58:00,
2013-03-22 11:00:00,58.2,42.6,29.91,SSW,211,6.9,6.9,56,0.00,CLR,,0.00,714.0,WeatherDisplay:10.37,2013-03-22 10:00:00,
2013-03-22 11:03:00,58.0,41.0,29.91,SSW,205,3.5,0.0,53,0.00,CLR,,0.00,707.0,WeatherDisplay:10.37,2013-03-22 10:03:00,
2013-03-22 11:05:00,58.3,42.2,29.91,SSW,201,7.0,7.0,55,0.00,CLR,,0.00,714.0,WeatherDisplay:10.37,2013-03-22 10:05:00,
2013-03-22 11:06:00,58.3,41.7,29.91,SSW,196,9.2,9.2,54,0.00,CLR,,0.00,714.0,WeatherDisplay:10.37,2013-03-22 10:06:00,
2013-03-22 11:08:00,58.4,41.8,29.91,SSW,202,10.4,10.4,54,0.00,CLR,,0.00,714.0,WeatherDisplay:10.37,2013-03-22 10:08:00,
2013-03-22 11:09:00,58.3,41.7,29.91,SSW,194,10.4,10.4,54,0.00,CLR,,0.00,721.0,WeatherDisplay:10.37,2013-03-22 10:09:00,
2013-03-22 11:10:00,58.2,42.1,29.91,SSW,194,6.9,6.9,55,0.00,CLR,,0.00,708.0,WeatherDisplay:10.37,2013-03-22 10:10:00,
2013-03-22 11:12:00,58.2,42.1,29.91,SSE,161,6.9,6.9,55,0.00,CLR,,0.00,712.0,WeatherDisplay:10.37,2013-03-22 10:12:00,
2013-03-22 11:13:00,58.3,42.2,29.91,South,169,3.5,3.5,55,0.00,CLR,,0.00,719.0,WeatherDisplay:10.37,2013-03-22 10:13:00,
2013-03-22 11:14:00,58.4,42.3,29.91,SW,233,9.0,9.0,55,0.00,CLR,,0.00,722.0,WeatherDisplay:10.37,2013-03-22 10:14:00,
2013-03-22 11:15:00,58.6,42.5,29.91,SSW,192,12.0,12.0,55,0.00,CLR,,0.00,728.0,WeatherDisplay:10.37,2013-03-22 10:15:00,
2013-03-22 11:17:00,58.8,41.7,29.91,SW,223,11.5,11.5,53,0.00,CLR,,0.00,728.0,WeatherDisplay:10.37,2013-03-22 10:17:00,
2013-03-22 11:18:00,58.8,41.7,29.91,SSW,205,10.4,10.4,53,0.00,CLR,,0.00,729.0,WeatherDisplay:10.37,2013-03-22 10:18:00,
2013-03-22 11:19:00,58.9,41.8,29.91,SSW,213,8.1,8.1,53,0.00,CLR,,0.00,729.0,WeatherDisplay:10.37,2013-03-22 10:19:00,
2013-03-22 11:21:00,58.9,41.8,29.91,SSW,212,5.8,5.8,53,0.00,CLR,,0.00,724.0,WeatherDisplay:10.37,2013-03-22 10:21:00,
2013-03-22 11:22:00,58.9,42.3,29.91,West,268,10.0,10.0,54,0.00,CLR,,0.00,724.0,WeatherDisplay:10.37,2013-03-22 10:22:00,
2013-03-22 11:23:00,58.8,41.7,29.91,WSW,250,10.4,10.4,53,0.00,CLR,,0.00,726.0,WeatherDisplay:10.37,2013-03-22 10:23:00,
2013-03-22 11:24:00,58.4,40.8,29.91,SW,232,11.0,11.0,52,0.00,CLR,,0.00,726.0,WeatherDisplay:10.37,2013-03-22 10:24:00,
2013-03-22 11:26:00,58.4,42.3,29.91,SSW,209,11.5,11.5,55,0.00,CLR,,0.00,737.0,WeatherDisplay:10.37,2013-03-22 10:26:00,
2013-03-22 11:27:00,58.6,42.5,29.91,South,191,10.0,10.0,55,0.00,CLR,,0.00,728.0,WeatherDisplay:10.37,2013-03-22 10:27:00,
2013-03-22 11:28:00,58.6,42.0,29.91,South,181,11.5,11.5,54,0.00,CLR,,0.00,731.0,WeatherDisplay:10.37,2013-03-22 10:28:00,
2013-03-22 11:29:00,58.8,42.7,29.91,South,180,8.1,8.1,55,0.00,CLR,,0.00,733.0,WeatherDisplay:10.37,2013-03-22 10:29:00,
2013-03-22 11:31:00,58.9,42.8,29.91,South,182,5.8,5.8,55,0.00,CLR,,0.00,735.0,WeatherDisplay:10.37,2013-03-22 10:31:00,
2013-03-22 11:32:00,59.2,43.0,29.91,South,182,3.5,3.5,55,0.00,CLR,,0.00,737.0,WeatherDisplay:10.37,2013-03-22 10:32:00,
2013-03-22 11:34:00,59.5,42.8,29.91,West,259,6.9,6.9,54,0.00,CLR,,0.00,745.0,WeatherDisplay:10.37,2013-03-22 10:34:00,
2013-03-22 11:35:00,59.7,42.0,29.91,SW,225,6.9,6.9,52,0.00,CLR,,0.00,745.0,WeatherDisplay:10.37,2013-03-22 10:35:00,
2013-03-22 11:36:00,59.7,42.0,29.91,West,275,8.0,8.0,52,0.00,CLR,,0.00,742.0,WeatherDisplay:10.37,2013-03-22 10:36:00,
2013-03-22 11:37:00,59.7,42.0,29.91,West,273,11.0,11.1,52,0.00,CLR,,0.00,745.0,WeatherDisplay:10.37,2013-03-22 10:37:00,
2013-03-22 11:39:00,59.5,41.9,29.91,SW,236,11.5,11.5,52,0.00,CLR,,0.00,745.0,WeatherDisplay:10.37,2013-03-22 10:39:00,
2013-03-22 11:40:00,59.4,41.3,29.91,SW,236,10.4,10.4,51,0.00,CLR,,0.00,742.0,WeatherDisplay:10.37,2013-03-22 10:40:00,
2013-03-22 11:42:00,59.4,41.3,29.91,SW,219,9.0,9.0,51,0.00,CLR,,0.00,737.0,WeatherDisplay:10.37,2013-03-22 10:42:00,
2013-03-22 11:44:00,59.3,41.2,29.91,West,272,11.5,11.5,51,0.00,CLR,,0.00,747.0,WeatherDisplay:10.37,2013-03-22 10:44:00,
2013-03-22 11:45:00,59.3,42.2,29.91,West,261,12.7,12.7,53,0.00,CLR,,0.00,747.0,WeatherDisplay:10.37,2013-03-22 10:45:00,
2013-03-22 11:47:00,59.0,40.9,29.91,West,270,10.4,10.4,51,0.00,CLR,,0.00,745.0,WeatherDisplay:10.37,2013-03-22 10:47:00,
2013-03-22 11:48:00,59.1,42.0,29.91,West,275,5.8,5.8,53,0.00,CLR,,0.00,745.0,WeatherDisplay:10.37,2013-03-22 10:48:00,
2013-03-22 11:49:00,59.3,42.2,29.91,WSW,239,10.0,10.0,53,0.00,CLR,,0.00,749.0,WeatherDisplay:10.37,2013-03-22 10:49:00,
2013-03-22 11:50:00,59.4,41.8,29.91,SSW,206,10.4,10.4,52,0.00,CLR,,0.00,745.0,WeatherDisplay:10.37,2013-03-22 10:50:00,
2013-03-22 11:52:00,59.4,41.3,29.91,SSW,208,8.1,8.1,51,0.00,CLR,,0.00,738.0,WeatherDisplay:10.37,2013-03-22 10:52:00,
2013-03-22 11:53:00,59.3,40.7,29.91,SW,233,12.7,12.7,50,0.00,CLR,,0.00,742.0,WeatherDisplay:10.37,2013-03-22 10:53:00,
2013-03-22 11:54:00,59.2,41.6,29.91,SW,232,11.5,11.5,52,0.00,CLR,,0.00,742.0,WeatherDisplay:10.37,2013-03-22 10:54:00,
2013-03-22 11:55:00,59.1,42.0,29.91,SW,216,6.9,6.9,53,0.00,CLR,,0.00,744.0,WeatherDisplay:10.37,2013-03-22 10:55:00,
2013-03-22 11:57:00,59.2,42.1,29.91,SW,219,6.9,6.9,53,0.00,CLR,,0.00,742.0,WeatherDisplay:10.37,2013-03-22 10:57:00,
2013-03-22 11:58:00,59.4,42.7,29.90,WSW,242,6.9,6.9,54,0.00,CLR,,0.00,740.0,WeatherDisplay:10.37,2013-03-22 10:58:00,
2013-03-22 11:59:00,59.7,43.0,29.90,SW,229,9.2,9.5,54,0.00,CLR,,0.00,738.0,WeatherDisplay:10.37,2013-03-22 10:59:00,
2013-03-22 12:01:00,59.7,43.0,29.90,WSW,254,13.0,13.0,54,0.00,CLR,,0.00,738.0,WeatherDisplay:10.37,2013-03-22 11:01:00,
2013-03-22 12:02:00,59.5,42.3,29.90,WSW,255,13.8,13.8,53,0.00,CLR,,0.00,745.0,WeatherDisplay:10.37,2013-03-22 11:02:00,
2013-03-22 12:03:00,59.3,42.2,29.90,SSW,198,10.4,10.4,53,0.00,CLR,,0.00,749.0,WeatherDisplay:10.37,2013-03-22 11:03:00,
2013-03-22 12:04:00,59.2,42.1,29.90,SSW,200,8.1,8.1,53,0.00,CLR,,0.00,751.0,WeatherDisplay:10.37,2013-03-22 11:04:00,
2013-03-22 12:06:00,59.3,42.6,29.90,SSW,200,4.0,4.0,54,0.00,CLR,,0.00,751.0,WeatherDisplay:10.37,2013-03-22 11:06:00,
2013-03-22 12:07:00,59.4,42.3,29.90,SSW,200,3.5,3.5,53,0.00,CLR,,0.00,754.0,WeatherDisplay:10.37,2013-03-22 11:07:00,
2013-03-22 12:08:00,59.6,42.4,29.91,SSW,209,8.1,8.1,53,0.00,CLR,,0.00,747.0,WeatherDisplay:10.37,2013-03-22 11:08:00,
2013-03-22 12:09:00,59.7,43.0,29.90,SSW,213,8.1,8.1,54,0.00,CLR,,0.00,747.0,WeatherDisplay:10.37,2013-03-22 11:09:00,
2013-03-22 12:11:00,59.9,42.7,29.90,SSW,207,10.0,10.0,53,0.00,CLR,,0.00,749.0,WeatherDisplay:10.37,2013-03-22 11:11:00,
2013-03-22 12:12:00,60.1,42.9,29.90,SW,230,12.7,12.7,53,0.00,CLR,,0.00,751.0,WeatherDisplay:10.37,2013-03-22 11:12:00,
2013-03-22 12:14:00,60.1,42.9,29.90,SW,223,11.5,11.5,53,0.00,CLR,,0.00,751.0,WeatherDisplay:10.37,2013-03-22 11:14:00,
2013-03-22 12:16:00,60.3,42.1,29.90,SSW,201,12.7,12.7,51,0.00,CLR,,0.00,752.0,WeatherDisplay:10.37,2013-03-22 11:16:00,
2013-03-22 12:18:00,60.2,41.5,29.90,SSW,202,6.9,6.9,50,0.00,CLR,,0.00,745.0,WeatherDisplay:10.37,2013-03-22 11:18:00,
2013-03-22 12:19:00,60.2,42.0,29.90,SSW,205,5.8,5.8,51,0.00,CLR,,0.00,745.0,WeatherDisplay:10.37,2013-03-22 11:19:00,
2013-03-22 12:22:00,60.4,43.2,29.90,WSW,257,8.1,8.1,53,0.00,CLR,,0.00,751.0,WeatherDisplay:10.37,2013-03-22 11:22:00,
2013-03-22 12:23:00,60.6,42.9,29.90,West,268,13.8,13.8,52,0.00,CLR,,0.00,751.0,WeatherDisplay:10.37,2013-03-22 11:23:00,
2013-03-22 12:24:00,60.5,42.8,29.90,WSW,244,11.5,11.5,52,0.00,CLR,,0.00,745.0,WeatherDisplay:10.37,2013-03-22 11:24:00,
2013-03-22 12:25:00,60.4,42.7,29.90,West,259,6.9,6.9,52,0.00,CLR,,0.00,744.0,WeatherDisplay:10.37,2013-03-22 11:25:00,
2013-03-22 12:27:00,60.1,42.4,29.90,WNW,302,8.1,8.1,52,0.00,CLR,,0.00,749.0,WeatherDisplay:10.37,2013-03-22 11:27:00,
2013-03-22 12:28:00,60.1,42.4,29.90,WNW,300,6.9,6.9,52,0.00,CLR,,0.00,751.0,WeatherDisplay:10.37,2013-03-22 11:28:00,
2013-03-22 12:29:00,59.9,42.2,29.90,WNW,295,5.8,5.8,52,0.00,CLR,,0.00,751.0,WeatherDisplay:10.37,2013-03-22 11:29:00,
2013-03-22 12:30:00,59.9,42.2,29.90,WNW,290,5.0,5.0,52,0.00,CLR,,0.00,754.0,WeatherDisplay:10.37,2013-03-22 11:30:00,
2013-03-22 12:32:00,60.6,43.9,29.90,West,277,13.8,13.8,54,0.00,CLR,,0.00,745.0,WeatherDisplay:10.37,2013-03-22 11:32:00,
2013-03-22 12:33:00,60.7,43.5,29.90,WSW,250,9.2,9.2,53,0.00,CLR,,0.00,742.0,WeatherDisplay:10.37,2013-03-22 11:33:00,
2013-03-22 12:34:00,60.6,43.4,29.90,WSW,237,10.4,10.4,53,0.00,CLR,,0.00,752.0,WeatherDisplay:10.37,2013-03-22 11:34:00,
2013-03-22 12:35:00,60.6,43.4,29.90,West,269,10.4,10.4,53,0.00,CLR,,0.00,751.0,WeatherDisplay:10.37,2013-03-22 11:35:00,
2013-03-22 12:37:00,60.5,44.2,29.90,WNW,294,11.5,11.5,55,0.00,CLR,,0.00,751.0,WeatherDisplay:10.37,2013-03-22 11:37:00,
2013-03-22 12:38:00,60.4,44.2,29.90,WSW,238,13.8,13.8,55,0.00,CLR,,0.00,749.0,WeatherDisplay:10.37,2013-03-22 11:38:00,
2013-03-22 12:39:00,60.4,44.2,29.90,WSW,246,12.7,12.7,55,0.00,CLR,,0.00,749.0,WeatherDisplay:10.37,2013-03-22 11:39:00,
2013-03-22 12:40:00,60.3,43.6,29.90,WSW,244,15.0,15.0,54,0.00,CLR,,0.00,749.0,WeatherDisplay:10.37,2013-03-22 11:40:00,
2013-03-22 12:43:00,60.1,43.9,29.90,WSW,243,9.0,9.0,55,0.00,CLR,,0.00,742.0,WeatherDisplay:10.37,2013-03-22 11:43:00,
2013-03-22 12:44:00,60.2,44.0,29.90,SW,225,12.0,12.0,55,0.00,CLR,,0.00,744.0,WeatherDisplay:10.37,2013-03-22 11:44:00,
2013-03-22 12:45:00,60.3,44.1,29.90,SW,229,15.0,15.0,55,0.00,CLR,,0.00,749.0,WeatherDisplay:10.37,2013-03-22 11:45:00,
2013-03-22 12:48:00,60.4,43.7,29.90,WSW,247,17.3,17.3,54,0.00,CLR,,0.00,754.0,WeatherDisplay:10.37,2013-03-22 11:48:00,
2013-03-22 12:49:00,60.4,44.2,29.90,WSW,250,16.1,16.1,55,0.00,CLR,,0.00,752.0,WeatherDisplay:10.37,2013-03-22 11:49:00,
2013-03-22 12:50:00,60.2,43.5,29.90,WSW,248,13.0,13.0,54,0.00,CLR,,0.00,731.0,WeatherDisplay:10.37,2013-03-22 11:50:00,
2013-03-22 12:53:00,60.0,43.3,29.90,West,260,11.5,11.5,54,0.00,CLR,,0.00,744.0,WeatherDisplay:10.37,2013-03-22 11:53:00,
2013-03-22 12:54:00,59.9,43.7,29.90,West,278,9.2,9.2,55,0.00,CLR,,0.00,726.0,WeatherDisplay:10.37,2013-03-22 11:54:00,
2013-03-22 12:55:00,59.8,43.6,29.90,West,267,12.0,12.0,55,0.00,CLR,,0.00,737.0,WeatherDisplay:10.37,2013-03-22 11:55:00,
2013-03-22 12:59:00,59.7,43.5,29.90,West,265,13.8,13.8,55,0.00,CLR,,0.00,744.0,WeatherDisplay:10.37,2013-03-22 11:59:00,
2013-03-22 13:00:00,59.6,43.4,29.90,West,268,11.5,11.5,55,0.00,CLR,,0.00,740.0,WeatherDisplay:10.37,2013-03-22 12:00:00,
2013-03-22 13:04:00,59.7,43.5,29.90,WSW,237,11.5,11.5,55,0.00,CLR,,0.00,738.0,WeatherDisplay:10.37,2013-03-22 12:04:00,
2013-03-22 13:05:00,59.9,43.2,29.90,WSW,253,18.4,18.4,54,0.00,CLR,,0.00,738.0,WeatherDisplay:10.37,2013-03-22 12:05:00,
2013-03-22 13:09:00,59.6,42.4,29.90,West,261,11.5,11.5,53,0.00,CLR,,0.00,738.0,WeatherDisplay:10.37,2013-03-22 12:09:00,
2013-03-22 13:10:00,59.7,42.5,29.90,SW,224,10.4,10.4,53,0.00,CLR,,0.00,729.0,WeatherDisplay:10.37,2013-03-22 12:10:00,
2013-03-22 13:11:00,59.7,42.5,29.90,SW,223,10.4,10.4,53,0.00,CLR,,0.00,729.0,WeatherDisplay:10.37,2013-03-22 12:11:00,
2013-03-22 13:14:00,60.1,42.4,29.90,SW,235,13.8,13.8,52,0.00,CLR,,0.00,643.0,WeatherDisplay:10.37,2013-03-22 12:14:00,
2013-03-22 13:15:00,60.1,42.4,29.90,West,271,13.0,13.0,52,0.00,CLR,,0.00,708.0,WeatherDisplay:10.37,2013-03-22 12:15:00,
2013-03-22 13:16:00,60.0,41.8,29.90,West,275,15.0,15.0,51,0.00,CLR,,0.00,724.0,WeatherDisplay:10.37,2013-03-22 12:16:00,
2013-03-22 13:19:00,59.8,42.1,29.90,West,279,10.4,10.4,52,0.00,CLR,,0.00,719.0,WeatherDisplay:10.37,2013-03-22 12:19:00,
2013-03-22 13:20:00,60.0,42.8,29.90,WNW,285,11.5,11.5,53,0.00,CLR,,0.00,705.0,WeatherDisplay:10.37,2013-03-22 12:20:00,
2013-03-22 13:21:00,60.0,43.3,29.90,West,277,11.5,11.5,54,0.00,CLR,,0.00,705.0,WeatherDisplay:10.37,2013-03-22 12:21:00,
2013-03-22 13:24:00,59.8,42.1,29.90,SW,223,18.4,18.4,52,0.00,CLR,,0.00,719.0,WeatherDisplay:10.37,2013-03-22 12:24:00,
2013-03-22 13:25:00,59.7,42.5,29.90,WSW,238,16.1,16.1,53,0.00,CLR,,0.00,712.0,WeatherDisplay:10.37,2013-03-22 12:25:00,
2013-03-22 13:27:00,60.0,42.3,29.90,WSW,249,15.0,15.0,52,0.00,CLR,,0.00,710.0,WeatherDisplay:10.37,2013-03-22 12:27:00,
2013-03-22 13:29:00,59.9,42.2,29.90,WSW,249,11.5,11.5,52,0.00,CLR,,0.00,724.0,WeatherDisplay:10.37,2013-03-22 12:29:00,
2013-03-22 13:30:00,60.0,41.8,29.90,West,262,11.5,11.5,51,0.00,CLR,,0.00,708.0,WeatherDisplay:10.37,2013-03-22 12:30:00,
2013-03-22 13:31:00,60.1,41.9,29.90,WNW,288,11.5,11.5,51,0.00,CLR,,0.00,708.0,WeatherDisplay:10.37,2013-03-22 12:31:00,
2013-03-22 13:32:00,60.1,41.9,29.89,West,265,15.0,15.0,51,0.00,CLR,,0.00,708.0,WeatherDisplay:10.37,2013-03-22 12:32:00,
2013-03-22 13:34:00,59.9,41.7,29.90,WSW,249,12.7,12.7,51,0.00,CLR,,0.00,708.0,WeatherDisplay:10.37,2013-03-22 12:34:00,
2013-03-22 13:35:00,59.8,42.1,29.89,WSW,244,10.4,10.4,52,0.00,CLR,,0.00,708.0,WeatherDisplay:10.37,2013-03-22 12:35:00,
2013-03-22 13:36:00,59.7,41.5,29.89,WSW,240,9.2,9.2,51,0.00,CLR,,0.00,708.0,WeatherDisplay:10.37,2013-03-22 12:36:00,
2013-03-22 13:37:00,59.6,41.4,29.90,WSW,243,15.0,15.0,51,0.00,CLR,,0.00,708.0,WeatherDisplay:10.37,2013-03-22 12:37:00,
2013-03-22 13:39:00,59.5,41.9,29.90,SW,234,16.0,16.0,52,0.00,CLR,,0.00,698.0,WeatherDisplay:10.37,2013-03-22 12:39:00,
2013-03-22 13:40:00,59.5,41.9,29.90,SW,223,16.1,16.1,52,0.00,CLR,,0.00,696.0,WeatherDisplay:10.37,2013-03-22 12:40:00,
2013-03-22 13:41:00,59.6,41.9,29.90,WNW,282,15.0,15.0,52,0.00,CLR,,0.00,684.0,WeatherDisplay:10.37,2013-03-22 12:41:00,
2013-03-22 13:42:00,59.6,41.4,29.90,West,267,13.8,13.8,51,0.00,CLR,,0.00,684.0,WeatherDisplay:10.37,2013-03-22 12:42:00,
2013-03-22 13:44:00,60.1,42.4,29.90,SW,219,13.8,13.8,52,0.00,CLR,,0.00,701.0,WeatherDisplay:10.37,2013-03-22 12:44:00,
2013-03-22 13:45:00,60.2,42.5,29.90,WSW,244,16.1,16.1,52,0.00,CLR,,0.00,687.0,WeatherDisplay:10.37,2013-03-22 12:45:00,
2013-03-22 13:47:00,60.3,42.6,29.90,West,269,18.0,18.0,52,0.00,CLR,,0.00,657.0,WeatherDisplay:10.37,2013-03-22 12:47:00,
2013-03-22 13:50:00,59.9,41.2,29.89,West,275,16.0,16.0,50,0.00,FEW,,0.00,686.0,WeatherDisplay:10.37,2013-03-22 12:50:00,
2013-03-22 13:51:00,59.8,40.6,29.89,WNW,285,17.3,17.3,49,0.00,FEW,,0.00,691.0,WeatherDisplay:10.37,2013-03-22 12:51:00,
2013-03-22 13:52:00,59.7,40.0,29.90,West,275,17.3,17.3,48,0.00,FEW,,0.00,691.0,WeatherDisplay:10.37,2013-03-22 12:52:00,
2013-03-22 13:55:00,59.5,41.3,29.90,West,275,16.1,16.1,51,0.00,FEW,,0.00,682.0,WeatherDisplay:10.37,2013-03-22 12:55:00,
2013-03-22 13:56:00,59.4,41.3,29.89,WSW,244,12.7,12.7,51,0.00,FEW,,0.00,679.0,WeatherDisplay:10.37,2013-03-22 12:56:00,
2013-03-22 13:57:00,59.3,41.2,29.89,SW,234,12.7,12.7,51,0.00,FEW,,0.00,675.0,WeatherDisplay:10.37,2013-03-22 12:57:00,
2013-03-22 14:00:00,59.4,41.3,29.89,West,267,15.0,15.0,51,0.00,FEW,,0.00,675.0,WeatherDisplay:10.37,2013-03-22 13:00:00,
2013-03-22 14:02:00,59.3,41.2,29.89,West,262,14.0,14.0,51,0.00,FEW,,0.00,671.0,WeatherDisplay:10.37,2013-03-22 13:02:00,
2013-03-22 14:05:00,59.5,41.3,29.89,WSW,256,16.1,16.1,51,0.00,FEW,,0.00,664.0,WeatherDisplay:10.37,2013-03-22 13:05:00,
2013-03-22 14:06:00,59.6,41.4,29.89,West,273,16.1,16.1,51,0.00,FEW,,0.00,663.0,WeatherDisplay:10.37,2013-03-22 13:06:00,
2013-03-22 14:07:00,59.7,41.5,29.89,SW,232,16.1,16.1,51,0.00,FEW,,0.00,663.0,WeatherDisplay:10.37,2013-03-22 13:07:00,
2013-03-22 14:08:00,59.7,41.5,29.89,SW,227,15.0,15.0,51,0.00,FEW,,0.00,663.0,WeatherDisplay:10.37,2013-03-22 13:08:00,
2013-03-22 14:10:00,59.9,40.7,29.89,SW,228,13.8,13.8,49,0.00,FEW,,0.00,659.0,WeatherDisplay:10.37,2013-03-22 13:10:00,
2013-03-22 14:12:00,60.3,41.6,29.89,WNW,285,9.2,9.2,50,0.00,FEW,,0.00,647.0,WeatherDisplay:10.37,2013-03-22 13:12:00,
2013-03-22 14:13:00,60.4,41.7,29.89,West,263,11.5,11.5,50,0.00,FEW,,0.00,647.0,WeatherDisplay:10.37,2013-03-22 13:13:00,
2013-03-22 14:16:00,60.4,41.7,29.89,SW,232,16.1,16.1,50,0.00,FEW,,0.00,650.0,WeatherDisplay:10.37,2013-03-22 13:16:00,
2013-03-22 14:17:00,60.3,41.6,29.89,WSW,256,19.6,19.6,50,0.00,FEW,,0.00,645.0,WeatherDisplay:10.37,2013-03-22 13:17:00,
2013-03-22 14:18:00,60.4,41.7,29.89,West,265,15.0,15.0,50,0.00,FEW,,0.00,645.0,WeatherDisplay:10.37,2013-03-22 13:18:00,
2013-03-22 14:21:00,59.8,40.6,29.89,West,267,17.3,17.3,49,0.00,FEW,,0.00,638.0,WeatherDisplay:10.37,2013-03-22 13:21:00,
2013-03-22 14:22:00,59.7,40.5,29.89,West,279,16.1,16.1,49,0.00,FEW,,0.00,638.0,WeatherDisplay:10.37,2013-03-22 13:22:00,
2013-03-22 14:23:00,59.7,41.0,29.89,West,281,13.8,13.8,50,0.00,FEW,,0.00,631.0,WeatherDisplay:10.37,2013-03-22 13:23:00,
2013-03-22 14:27:00,59.8,41.6,29.89,WSW,241,12.7,12.7,51,0.00,FEW,,0.00,628.0,WeatherDisplay:10.37,2013-03-22 13:27:00,
2013-03-22 14:28:00,59.9,41.2,29.89,WSW,245,11.5,11.5,50,0.00,FEW,,0.00,624.0,WeatherDisplay:10.37,2013-03-22 13:28:00,
2013-03-22 14:32:00,60.0,40.8,29.89,SW,217,11.5,11.5,49,0.00,FEW,,0.00,621.0,WeatherDisplay:10.37,2013-03-22 13:32:00,
2013-03-22 14:33:00,60.1,40.9,29.89,SSW,204,11.5,11.5,49,0.00,FEW,,0.00,621.0,WeatherDisplay:10.37,2013-03-22 13:33:00,
2013-03-22 14:37:00,59.8,39.5,29.89,WSW,249,15.0,15.0,47,0.00,FEW,,0.00,608.0,WeatherDisplay:10.37,2013-03-22 13:37:00,
2013-03-22 14:38:00,59.5,39.2,29.89,WSW,250,15.0,15.0,47,0.00,FEW,,0.00,606.0,WeatherDisplay:10.37,2013-03-22 13:38:00,
2013-03-22 14:43:00,59.6,40.4,29.89,WSW,238,11.5,11.5,49,0.00,FEW,,0.00,592.0,WeatherDisplay:10.37,2013-03-22 13:43:00,
2013-03-22 14:44:00,59.7,41.0,29.89,WSW,254,12.0,12.0,50,0.00,FEW,,0.00,591.0,WeatherDisplay:10.37,2013-03-22 13:44:00,
2013-03-22 14:48:00,60.0,41.8,29.89,WSW,245,8.1,8.1,51,0.00,FEW,,0.00,582.0,WeatherDisplay:10.37,2013-03-22 13:48:00,
2013-03-22 14:49:00,60.2,42.0,29.89,WSW,239,14.0,14.0,51,0.00,FEW,,0.00,580.0,WeatherDisplay:10.37,2013-03-22 13:49:00,
2013-03-22 14:53:00,60.4,41.7,29.88,West,274,14.0,14.0,50,0.00,FEW,,0.00,570.0,WeatherDisplay:10.37,2013-03-22 13:53:00,
2013-03-22 14:54:00,60.3,41.6,29.88,WSW,242,19.6,19.6,50,0.00,FEW,,0.00,571.0,WeatherDisplay:10.37,2013-03-22 13:54:00,
2013-03-22 14:58:00,59.7,38.9,29.89,WSW,252,11.5,11.5,46,0.00,FEW,,0.00,555.0,WeatherDisplay:10.37,2013-03-22 13:58:00,
2013-03-22 14:59:00,59.7,39.4,29.89,West,265,12.7,12.7,47,0.00,FEW,,0.00,559.0,WeatherDisplay:10.37,2013-03-22 13:59:00,
2013-03-22 15:00:00,59.6,39.3,29.89,WSW,258,9.2,9.2,47,0.00,FEW,,0.00,555.0,WeatherDisplay:10.37,2013-03-22 14:00:00,
2013-03-22 15:03:00,59.5,40.8,29.89,West,271,11.5,11.5,50,0.00,FEW,,0.00,552.0,WeatherDisplay:10.37,2013-03-22 14:03:00,
2013-03-22 15:04:00,59.5,41.3,29.89,West,271,13.0,13.0,51,0.00,FEW,,0.00,552.0,WeatherDisplay:10.37,2013-03-22 14:04:00,
2013-03-22 15:05:00,59.5,41.3,29.89,WNW,288,13.0,13.0,51,0.00,FEW,,0.00,543.0,WeatherDisplay:10.37,2013-03-22 14:05:00,
2013-03-22 15:08:00,59.3,41.2,29.89,WSW,256,16.1,16.1,51,0.00,FEW,,0.00,536.0,WeatherDisplay:10.37,2013-03-22 14:08:00,
2013-03-22 15:09:00,59.2,40.0,29.89,WSW,254,15.0,15.0,49,0.00,FEW,,0.00,533.0,WeatherDisplay:10.37,2013-03-22 14:09:00,
2013-03-22 15:10:00,59.2,40.0,29.89,WSW,258,11.5,11.5,49,0.00,FEW,,0.00,527.0,WeatherDisplay:10.37,2013-03-22 14:10:00,
2013-03-22 15:13:00,59.4,40.7,29.89,West,268,13.0,13.0,50,0.00,FEW,,0.00,531.0,WeatherDisplay:10.37,2013-03-22 14:13:00,
2013-03-22 15:14:00,59.3,40.7,29.89,WSW,258,13.8,13.8,50,0.00,FEW,,0.00,527.0,WeatherDisplay:10.37,2013-03-22 14:14:00,
2013-03-22 15:15:00,59.3,40.7,29.89,WNW,283,11.5,11.5,50,0.00,FEW,,0.00,522.0,WeatherDisplay:10.37,2013-03-22 14:15:00,
2013-03-22 15:18:00,59.3,41.7,29.89,West,280,16.1,16.1,52,0.00,FEW,,0.00,520.0,WeatherDisplay:10.37,2013-03-22 14:18:00,
2013-03-22 15:19:00,59.2,41.6,29.89,WNW,291,12.7,12.7,52,0.00,FEW,,0.00,515.0,WeatherDisplay:10.37,2013-03-22 14:19:00,
2013-03-22 15:20:00,59.2,42.1,29.89,West,277,11.5,11.5,53,0.00,FEW,,0.00,508.0,WeatherDisplay:10.37,2013-03-22 14:20:00,
2013-03-22 15:23:00,59.0,41.9,29.89,WNW,302,13.8,13.8,53,0.00,FEW,,0.00,506.0,WeatherDisplay:10.37,2013-03-22 14:23:00,
2013-03-22 15:24:00,58.9,41.8,29.89,West,278,11.5,11.5,53,0.00,FEW,,0.00,504.0,WeatherDisplay:10.37,2013-03-22 14:24:00,
2013-03-22 15:25:00,58.9,41.8,29.89,WNW,284,10.0,10.0,53,0.00,FEW,,0.00,504.0,WeatherDisplay:10.37,2013-03-22 14:25:00,
2013-03-22 15:28:00,59.1,42.5,29.89,West,265,13.8,13.8,54,0.00,FEW,,0.00,497.0,WeatherDisplay:10.37,2013-03-22 14:28:00,
2013-03-22 15:29:00,59.1,42.5,29.89,West,266,15.0,15.0,54,0.00,FEW,,0.00,497.0,WeatherDisplay:10.37,2013-03-22 14:29:00,
2013-03-22 15:30:00,59.1,42.5,29.89,West,261,15.0,15.0,54,0.00,FEW,,0.00,497.0,WeatherDisplay:10.37,2013-03-22 14:30:00,
2013-03-22 15:33:00,58.9,43.7,29.89,West,265,14.0,14.0,57,0.00,FEW,,0.00,482.0,WeatherDisplay:10.37,2013-03-22 14:33:00,
2013-03-22 15:34:00,58.9,43.7,29.89,West,265,13.8,13.8,57,0.00,FEW,,0.00,482.0,WeatherDisplay:10.37,2013-03-22 14:34:00,
2013-03-22 15:35:00,59.0,44.7,29.89,West,267,10.0,10.0,59,0.00,FEW,,0.00,482.0,WeatherDisplay:10.37,2013-03-22 14:35:00,
2013-03-22 15:38:00,59.4,45.5,29.89,WNW,287,11.5,11.5,60,0.00,FEW,,0.00,475.0,WeatherDisplay:10.37,2013-03-22 14:38:00,
2013-03-22 15:39:00,59.4,45.5,29.89,WSW,253,11.5,11.5,60,0.00,FEW,,0.00,462.0,WeatherDisplay:10.37,2013-03-22 14:39:00,
2013-03-22 15:40:00,59.4,45.5,29.89,West,259,12.7,12.7,60,0.00,FEW,,0.00,462.0,WeatherDisplay:10.37,2013-03-22 14:40:00,
2013-03-22 15:43:00,59.4,45.5,29.89,WSW,257,12.0,12.0,60,0.00,FEW,,0.00,452.0,WeatherDisplay:10.37,2013-03-22 14:43:00,
2013-03-22 15:45:00,59.3,45.0,29.89,West,259,12.7,12.7,59,0.00,FEW,,0.00,450.0,WeatherDisplay:10.37,2013-03-22 14:45:00,
2013-03-22 15:48:00,58.9,44.1,29.89,WSW,258,11.5,11.5,58,0.00,FEW,,0.00,443.0,WeatherDisplay:10.37,2013-03-22 14:48:00,
2013-03-22 15:50:00,58.9,44.1,29.89,WSW,241,12.7,12.7,58,0.00,FEW,,0.00,417.0,WeatherDisplay:10.37,2013-03-22 14:50:00,
2013-03-22 15:51:00,58.9,44.1,29.89,West,266,12.7,12.7,58,0.00,FEW,,0.00,411.0,WeatherDisplay:10.37,2013-03-22 14:51:00,
2013-03-22 15:54:00,58.9,45.0,29.89,West,279,11.5,11.5,60,0.00,FEW,,0.00,397.0,WeatherDisplay:10.37,2013-03-22 14:54:00,
2013-03-22 15:55:00,58.9,45.0,29.89,West,263,14.0,14.0,60,0.00,FEW,,0.00,394.0,WeatherDisplay:10.37,2013-03-22 14:55:00,
2013-03-22 15:56:00,58.9,44.6,29.89,WNW,282,16.1,16.1,59,0.00,FEW,,0.00,396.0,WeatherDisplay:10.37,2013-03-22 14:56:00,
2013-03-22 15:59:00,58.9,45.0,29.89,West,281,9.2,9.2,60,0.00,FEW,,0.00,390.0,WeatherDisplay:10.37,2013-03-22 14:59:00,
2013-03-22 16:00:00,58.9,45.5,29.89,WSW,238,10.4,10.4,61,0.00,FEW,,0.00,390.0,WeatherDisplay:10.37,2013-03-22 15:00:00,
2013-03-22 16:01:00,58.9,45.5,29.89,WSW,245,11.5,11.5,61,0.00,FEW,,0.00,390.0,WeatherDisplay:10.37,2013-03-22 15:01:00,
2013-03-22 16:04:00,58.9,45.5,29.89,WSW,250,11.5,11.5,61,0.00,FEW,,0.00,339.0,WeatherDisplay:10.37,2013-03-22 15:04:00,
2013-03-22 16:05:00,58.9,45.5,29.89,West,273,11.0,11.0,61,0.00,FEW,,0.00,304.0,WeatherDisplay:10.37,2013-03-22 15:05:00,
2013-03-22 16:06:00,58.9,45.5,29.89,West,270,12.0,12.0,61,0.00,FEW,,0.00,304.0,WeatherDisplay:10.37,2013-03-22 15:06:00,
2013-03-22 16:07:00,58.9,45.5,29.89,West,277,12.7,12.7,61,0.00,FEW,,0.00,304.0,WeatherDisplay:10.37,2013-03-22 15:07:00,
2013-03-22 16:09:00,58.9,45.5,29.89,West,275,12.7,12.7,61,0.00,FEW,,0.00,232.0,WeatherDisplay:10.37,2013-03-22 15:09:00,
2013-03-22 16:10:00,58.9,45.5,29.89,West,272,11.0,11.0,61,0.00,FEW,,0.00,246.0,WeatherDisplay:10.37,2013-03-22 15:10:00,
2013-03-22 16:11:00,58.8,45.4,29.89,West,267,12.7,12.7,61,0.00,FEW,,0.00,230.0,WeatherDisplay:10.37,2013-03-22 15:11:00,
2013-03-22 16:12:00,58.7,45.7,29.89,West,275,10.4,10.4,62,0.00,FEW,,0.00,230.0,WeatherDisplay:10.37,2013-03-22 15:12:00,
2013-03-22 16:14:00,58.6,45.6,29.89,West,267,11.5,11.5,62,0.00,FEW,,0.00,313.0,WeatherDisplay:10.37,2013-03-22 15:14:00,
2013-03-22 16:16:00,58.4,44.6,29.90,WSW,252,15.0,15.0,60,0.00,FEW,,0.00,274.0,WeatherDisplay:10.37,2013-03-22 15:16:00,
2013-03-22 16:17:00,58.3,44.5,29.89,WSW,248,16.1,16.1,60,0.00,FEW,,0.00,274.0,WeatherDisplay:10.37,2013-03-22 15:17:00,
2013-03-22 16:19:00,58.3,45.3,29.89,West,263,11.5,11.5,62,0.00,FEW,,0.00,211.0,WeatherDisplay:10.37,2013-03-22 15:19:00,
2013-03-22 16:22:00,58.4,45.8,29.90,WSW,242,9.2,9.2,63,0.00,FEW,,0.00,181.0,WeatherDisplay:10.37,2013-03-22 15:22:00,
2013-03-22 16:24:00,58.4,45.8,29.89,West,281,10.4,10.4,63,0.00,FEW,,0.00,237.0,WeatherDisplay:10.37,2013-03-22 15:24:00,
2013-03-22 16:27:00,58.3,44.9,29.90,West,268,11.5,11.5,61,0.00,FEW,,0.00,151.0,WeatherDisplay:10.37,2013-03-22 15:27:00,
2013-03-22 16:29:00,58.2,44.4,29.90,West,267,11.5,11.5,60,0.00,FEW,,0.00,274.0,WeatherDisplay:10.37,2013-03-22 15:29:00,
2013-03-22 16:32:00,58.2,44.8,29.90,West,274,11.5,11.5,61,0.00,FEW,,0.00,290.0,WeatherDisplay:10.37,2013-03-22 15:32:00,
2013-03-22 16:34:00,58.1,44.7,29.90,West,274,10.4,10.4,61,0.00,FEW,,0.00,197.0,WeatherDisplay:10.37,2013-03-22 15:34:00,
2013-03-22 16:37:00,58.0,44.6,29.90,West,261,11.5,11.5,61,0.00,FEW,,0.00,128.0,WeatherDisplay:10.37,2013-03-22 15:37:00,
2013-03-22 16:38:00,58.0,44.6,29.90,West,279,11.5,11.5,61,0.00,FEW,,0.00,142.0,WeatherDisplay:10.37,2013-03-22 15:38:00,
2013-03-22 16:39:00,58.0,45.0,29.90,WSW,246,11.5,11.5,62,0.00,FEW,,0.00,158.0,WeatherDisplay:10.37,2013-03-22 15:39:00,
2013-03-22 16:42:00,57.9,45.0,29.90,WSW,250,8.1,8.1,62,0.00,FEW,,0.00,149.0,WeatherDisplay:10.37,2013-03-22 15:42:00,
2013-03-22 16:43:00,57.9,45.0,29.90,West,277,8.1,8.1,62,0.00,FEW,,0.00,149.0,WeatherDisplay:10.37,2013-03-22 15:43:00,
2013-03-22 16:44:00,57.9,45.0,29.90,WSW,242,8.1,8.1,62,0.00,SCT,,0.00,149.0,WeatherDisplay:10.37,2013-03-22 15:44:00,
2013-03-22 16:47:00,57.9,45.0,29.90,WSW,244,9.2,9.2,62,0.00,FEW,,0.00,272.0,WeatherDisplay:10.37,2013-03-22 15:47:00,
2013-03-22 16:48:00,57.9,44.5,29.90,WSW,238,9.2,9.2,61,0.00,FEW,,0.00,272.0,WeatherDisplay:10.37,2013-03-22 15:48:00,
2013-03-22 16:49:00,58.0,44.6,29.90,WSW,238,8.1,8.1,61,0.00,FEW,,0.00,264.0,WeatherDisplay:10.37,2013-03-22 15:49:00,
2013-03-22 16:53:00,58.1,44.7,29.90,WSW,244,8.1,8.1,61,0.00,FEW,,0.00,267.0,WeatherDisplay:10.37,2013-03-22 15:53:00,
2013-03-22 16:54:00,58.1,44.7,29.90,WSW,240,10.0,10.0,61,0.00,FEW,,0.00,262.0,WeatherDisplay:10.37,2013-03-22 15:54:00,
2013-03-22 16:58:00,58.0,45.0,29.90,West,269,12.7,12.7,62,0.00,FEW,,0.00,244.0,WeatherDisplay:10.37,2013-03-22 15:58:00,
2013-03-22 17:00:00,57.9,45.4,29.90,West,270,11.0,11.0,63,0.00,FEW,,0.00,237.0,WeatherDisplay:10.37,2013-03-22 16:00:00,
2013-03-22 17:03:00,57.8,45.7,29.90,West,276,11.5,11.5,64,0.00,FEW,,0.00,216.0,WeatherDisplay:10.37,2013-03-22 16:03:00,
2013-03-22 17:05:00,57.8,45.7,29.90,West,265,10.4,10.4,64,0.00,FEW,,0.00,218.0,WeatherDisplay:10.37,2013-03-22 16:05:00,
2013-03-22 17:08:00,57.7,46.0,29.90,WNW,288,9.2,9.2,65,0.00,FEW,,0.00,207.0,WeatherDisplay:10.37,2013-03-22 16:08:00,
2013-03-22 17:10:00,57.7,46.0,29.90,West,274,11.5,11.5,65,0.00,FEW,,0.00,199.0,WeatherDisplay:10.37,2013-03-22 16:10:00,
2013-03-22 17:13:00,57.7,46.0,29.90,WSW,244,10.4,10.4,65,0.00,FEW,,0.00,185.0,WeatherDisplay:10.37,2013-03-22 16:13:00,
2013-03-22 17:14:00,57.7,46.0,29.90,SW,228,8.1,8.1,65,0.00,FEW,,0.00,169.0,WeatherDisplay:10.37,2013-03-22 16:14:00,
2013-03-22 17:15:00,57.7,46.0,29.90,WSW,240,8.1,8.1,65,0.00,FEW,,0.00,169.0,WeatherDisplay:10.37,2013-03-22 16:15:00,
2013-03-22 17:18:00,57.6,45.5,29.90,West,273,9.2,9.2,64,0.00,FEW,,0.00,156.0,WeatherDisplay:10.37,2013-03-22 16:18:00,
2013-03-22 17:19:00,57.6,45.5,29.90,West,273,9.2,9.2,64,0.00,FEW,,0.00,156.0,WeatherDisplay:10.37,2013-03-22 16:19:00,
2013-03-22 17:20:00,57.6,45.5,29.91,West,272,10.4,10.4,64,0.00,FEW,,0.00,149.0,WeatherDisplay:10.37,2013-03-22 16:20:00,
2013-03-22 17:24:00,57.5,45.8,29.90,West,277,6.9,6.9,65,0.00,FEW,,0.00,134.0,WeatherDisplay:10.37,2013-03-22 16:24:00,
2013-03-22 17:25:00,57.5,45.8,29.90,West,277,7.0,7.0,65,0.00,FEW,,0.00,127.0,WeatherDisplay:10.37,2013-03-22 16:25:00,
2013-03-22 17:29:00,57.5,46.2,29.90,WSW,240,9.2,9.2,66,0.00,FEW,,0.00,114.0,WeatherDisplay:10.37,2013-03-22 16:29:00,
2013-03-22 17:30:00,57.5,45.8,29.90,West,269,10.4,10.4,65,0.00,FEW,,0.00,109.0,WeatherDisplay:10.37,2013-03-22 16:30:00,
2013-03-22 17:34:00,57.4,46.1,29.90,SW,227,9.2,9.2,66,0.00,SCT,,0.00,98.0,WeatherDisplay:10.37,2013-03-22 16:34:00,
2013-03-22 17:37:00,57.2,45.9,29.91,WSW,251,8.1,8.1,66,0.00,SCT,,0.00,90.0,WeatherDisplay:10.37,2013-03-22 16:37:00,
2013-03-22 17:39:00,57.2,45.9,29.91,WNW,290,8.1,8.1,66,0.00,SCT,,0.00,86.0,WeatherDisplay:10.37,2013-03-22 16:39:00,
2013-03-22 17:42:00,57.2,46.3,29.91,West,273,9.2,9.2,67,0.00,SCT,,0.00,72.0,WeatherDisplay:10.37,2013-03-22 16:42:00,
2013-03-22 17:44:00,57.1,46.6,29.91,West,276,10.4,10.4,68,0.00,SCT,,0.00,69.0,WeatherDisplay:10.37,2013-03-22 16:44:00,
2013-03-22 17:45:00,57.1,46.6,29.91,West,261,9.2,9.2,68,0.00,SCT,,0.00,65.0,WeatherDisplay:10.37,2013-03-22 16:45:00,
2013-03-22 17:48:00,57.0,46.5,29.91,West,259,8.1,8.1,68,0.00,SCT,,0.00,54.0,WeatherDisplay:10.37,2013-03-22 16:48:00,
2013-03-22 17:49:00,57.0,46.9,29.91,WSW,242,8.0,8.0,69,0.00,SCT,,0.00,49.0,WeatherDisplay:10.37,2013-03-22 16:49:00,
2013-03-22 17:50:00,57.0,46.9,29.91,WSW,251,8.1,8.1,69,0.00,SCT,,0.00,49.0,WeatherDisplay:10.37,2013-03-22 16:50:00,
2013-03-22 17:53:00,56.9,46.8,29.91,WSW,244,9.2,9.2,69,0.00,SCT,,0.00,42.0,WeatherDisplay:10.37,2013-03-22 16:53:00,
2013-03-22 17:55:00,56.9,46.8,29.91,WSW,258,7.0,7.0,69,0.00,SCT,,0.00,39.0,WeatherDisplay:10.37,2013-03-22 16:55:00,
2013-03-22 17:58:00,56.8,46.7,29.91,West,259,8.1,8.1,69,0.00,SCT,,0.00,32.0,WeatherDisplay:10.37,2013-03-22 16:58:00,
2013-03-22 18:00:00,56.7,46.6,29.91,West,259,7.0,7.0,69,0.00,SCT,,0.00,30.0,WeatherDisplay:10.37,2013-03-22 17:00:00,
2013-03-22 18:04:00,56.6,46.9,29.91,West,260,7.0,7.0,70,0.00,BKN,,0.00,23.0,WeatherDisplay:10.37,2013-03-22 17:04:00,
2013-03-22 18:05:00,56.6,46.9,29.91,West,265,8.1,8.1,70,0.00,BKN,,0.00,21.0,WeatherDisplay:10.37,2013-03-22 17:05:00,
2013-03-22 18:09:00,56.4,46.7,29.92,WSW,256,6.9,6.9,70,0.00,BKN,,0.00,16.0,WeatherDisplay:10.37,2013-03-22 17:09:00,
2013-03-22 18:10:00,56.3,46.6,29.91,WSW,256,7.0,7.0,70,0.00,BKN,,0.00,16.0,WeatherDisplay:10.37,2013-03-22 17:10:00,
2013-03-22 18:14:00,56.2,46.9,29.92,WSW,253,9.2,9.2,71,0.00,BKN,,0.00,11.0,WeatherDisplay:10.37,2013-03-22 17:14:00,
2013-03-22 18:15:00,56.1,46.8,29.92,WSW,250,8.1,8.1,71,0.00,BKN,,0.00,9.0,WeatherDisplay:10.37,2013-03-22 17:15:00,
2013-03-22 18:16:00,56.1,46.8,29.92,WSW,248,5.8,5.8,71,0.00,BKN,,0.00,9.0,WeatherDisplay:10.37,2013-03-22 17:16:00,
2013-03-22 18:19:00,56.0,47.1,29.92,West,262,6.9,6.9,72,0.00,BKN,,0.00,7.0,WeatherDisplay:10.37,2013-03-22 17:19:00,
2013-03-22 18:20:00,56.0,47.1,29.92,West,262,7.0,7.0,72,0.00,BKN,,0.00,7.0,WeatherDisplay:10.37,2013-03-22 17:20:00,
2013-03-22 18:22:00,55.9,47.0,29.92,West,271,8.1,8.1,72,0.00,BKN,,0.00,5.0,WeatherDisplay:10.37,2013-03-22 17:22:00,
2013-03-22 18:24:00,55.8,46.9,29.92,West,278,8.1,8.1,72,0.00,BKN,,0.00,0.0,WeatherDisplay:10.37,2013-03-22 17:24:00,
2013-03-22 18:25:00,55.8,46.9,29.92,West,279,8.1,8.1,72,0.00,OVC,,0.00,0.0,WeatherDisplay:10.37,2013-03-22 17:25:00,
2013-03-22 18:27:00,55.8,47.3,29.92,West,278,8.1,8.1,73,0.00,OVC,,0.00,0.0,WeatherDisplay:10.37,2013-03-22 17:27:00,
2013-03-22 18:29:00,55.7,47.2,29.92,West,272,8.1,8.1,73,0.00,OVC,,0.00,0.0,WeatherDisplay:10.37,2013-03-22 17:29:00,
2013-03-22 18:30:00,55.7,47.2,29.92,West,272,8.1,8.1,73,0.00,OVC,,0.00,0.0,WeatherDisplay:10.37,2013-03-22 17:30:00,
2013-03-22 18:31:00,55.7,47.2,29.92,West,272,8.1,8.1,73,0.00,OVC,,0.00,0.0,WeatherDisplay:10.37,2013-03-22 17:31:00,
2013-03-22 18:32:00,55.7,47.2,29.92,West,276,5.8,5.8,73,0.00,OVC,,0.00,0.0,WeatherDisplay:10.37,2013-03-22 17:32:00,
2013-03-22 18:35:00,55.6,47.1,29.92,West,276,4.6,4.6,73,0.00,OVC,,0.00,0.0,WeatherDisplay:10.37,2013-03-22 17:35:00,
2013-03-22 18:36:00,55.6,47.1,29.92,West,276,4.6,4.6,73,0.00,OVC,,0.00,0.0,WeatherDisplay:10.37,2013-03-22 17:36:00,
2013-03-22 18:37:00,55.5,47.0,29.92,West,276,6.0,6.0,73,0.00,OVC,,0.00,0.0,WeatherDisplay:10.37,2013-03-22 17:37:00,
2013-03-22 18:40:00,55.4,47.2,29.92,West,278,8.1,8.1,74,0.00,OVC,,0.00,0.0,WeatherDisplay:10.37,2013-03-22 17:40:00,
2013-03-22 18:41:00,55.4,47.2,29.92,West,278,5.0,5.0,74,0.00,OVC,,0.00,0.0,WeatherDisplay:10.37,2013-03-22 17:41:00,
2013-03-22 18:42:00,55.4,47.2,29.92,West,278,5.8,5.8,74,0.00,OVC,,0.00,0.0,WeatherDisplay:10.37,2013-03-22 17:42:00,
2013-03-22 18:46:00,55.2,47.1,29.92,West,278,4.0,4.0,74,0.00,OVC,,0.00,0.0,WeatherDisplay:10.37,2013-03-22 17:46:00,
2013-03-22 18:47:00,55.2,47.1,29.92,West,278,3.5,3.5,74,0.00,OVC,,0.00,0.0,WeatherDisplay:10.37,2013-03-22 17:47:00,
2013-03-22 18:51:00,55.1,47.0,29.92,West,278,5.0,5.0,74,0.00,OVC,,0.00,0.0,WeatherDisplay:10.37,2013-03-22 17:51:00,
2013-03-22 18:52:00,55.1,47.3,29.92,West,278,5.8,5.8,75,0.00,OVC,,0.00,0.0,WeatherDisplay:10.37,2013-03-22 17:52:00,
2013-03-22 18:56:00,55.0,47.2,29.92,West,278,3.5,3.5,75,0.00,OVC,,0.00,0.0,WeatherDisplay:10.37,2013-03-22 17:56:00,
2013-03-22 18:57:00,55.0,47.2,29.92,West,278,3.5,3.5,75,0.00,OVC,,0.00,0.0,WeatherDisplay:10.37,2013-03-22 17:57:00,
2013-03-22 19:01:00,54.9,47.1,29.92,West,278,5.0,5.0,75,0.00,OVC,,0.00,0.0,WeatherDisplay:10.37,2013-03-22 18:01:00,
2013-03-22 19:02:00,54.9,47.1,29.92,West,278,4.6,4.6,75,0.00,OVC,,0.00,0.0,WeatherDisplay:10.37,2013-03-22 18:02:00,
2013-03-22 19:03:00,54.9,47.1,29.92,West,278,3.5,3.5,75,0.00,OVC,,0.00,0.0,WeatherDisplay:10.37,2013-03-22 18:03:00,
2013-03-22 19:06:00,54.8,47.0,29.92,West,278,4.0,4.0,75,0.00,OVC,,0.00,0.0,WeatherDisplay:10.37,2013-03-22 18:06:00,
2013-03-22 19:07:00,54.8,47.0,29.92,West,278,3.5,3.8,75,0.00,OVC,,0.00,0.0,WeatherDisplay:10.37,2013-03-22 18:07:00,
2013-03-22 19:08:00,54.8,47.0,29.92,West,278,4.6,4.6,75,0.00,OVC,,0.00,0.0,WeatherDisplay:10.37,2013-03-22 18:08:00,
2013-03-22 19:12:00,54.8,47.4,29.92,West,278,4.6,4.6,76,0.00,CLR,,0.00,0.0,WeatherDisplay:10.37,2013-03-22 18:12:00,
2013-03-22 19:13:00,54.7,47.3,29.92,West,278,3.5,3.5,76,0.00,CLR,,0.00,0.0,WeatherDisplay:10.37,2013-03-22 18:13:00,
2013-03-22 19:17:00,54.7,47.3,29.92,West,278,3.5,3.5,76,0.00,CLR,,0.00,0.0,WeatherDisplay:10.37,2013-03-22 18:17:00,
2013-03-22 19:18:00,54.7,47.3,29.92,West,278,3.5,0.0,76,0.00,CLR,,0.00,0.0,WeatherDisplay:10.37,2013-03-22 18:18:00,
2013-03-22 19:22:00,54.6,47.2,29.92,West,278,0.0,0.0,76,0.00,CLR,,0.00,0.0,WeatherDisplay:10.37,2013-03-22 18:22:00,
2013-03-22 19:23:00,54.5,47.1,29.92,West,278,0.0,0.0,76,0.00,CLR,,0.00,0.0,WeatherDisplay:10.37,2013-03-22 18:23:00,
2013-03-22 19:27:00,54.5,47.1,29.92,West,278,2.3,2.3,76,0.00,CLR,,0.00,0.0,WeatherDisplay:10.37,2013-03-22 18:27:00,
2013-03-22 19:28:00,54.5,47.1,29.92,West,278,2.3,2.3,76,0.00,CLR,,0.00,0.0,WeatherDisplay:10.37,2013-03-22 18:28:00,
2013-03-22 19:29:00,54.5,47.1,29.92,West,278,0.0,0.0,76,0.00,CLR,,0.00,0.0,WeatherDisplay:10.37,2013-03-22 18:29:00,
2013-03-22 19:32:00,54.4,47.0,29.92,West,278,0.0,0.0,76,0.00,CLR,,0.00,0.0,WeatherDisplay:10.37,2013-03-22 18:32:00,
2013-03-22 19:33:00,54.4,47.0,29.93,West,278,0.0,0.0,76,0.00,CLR,,0.00,0.0,WeatherDisplay:10.37,2013-03-22 18:33:00,
2013-03-22 19:34:00,54.4,47.0,29.92,West,278,0.0,0.0,76,0.00,CLR,,0.00,0.0,WeatherDisplay:10.37,2013-03-22 18:34:00,
2013-03-22 19:37:00,54.3,46.9,29.92,West,278,1.1,0.0,76,0.00,CLR,,0.00,0.0,WeatherDisplay:10.37,2013-03-22 18:37:00,
2013-03-22 19:38:00,54.3,46.9,29.92,West,278,0.0,0.0,76,0.00,CLR,,0.00,0.0,WeatherDisplay:10.37,2013-03-22 18:38:00,
2013-03-22 19:39:00,54.3,46.9,29.92,West,278,0.0,0.0,76,0.00,CLR,,0.00,0.0,WeatherDisplay:10.37,2013-03-22 18:39:00,
2013-03-22 19:42:00,54.2,46.8,29.92,West,278,0.0,0.0,76,0.00,CLR,,0.00,0.0,WeatherDisplay:10.37,2013-03-22 18:42:00,
2013-03-22 19:43:00,54.2,46.8,29.93,West,278,0.0,0.0,76,0.00,CLR,,0.00,0.0,WeatherDisplay:10.37,2013-03-22 18:43:00,
2013-03-22 19:44:00,54.2,46.8,29.93,West,278,0.0,0.0,76,0.00,CLR,,0.00,0.0,WeatherDisplay:10.37,2013-03-22 18:44:00,
2013-03-22 19:47:00,54.1,46.7,29.93,West,278,0.0,0.0,76,0.00,CLR,,0.00,0.0,WeatherDisplay:10.37,2013-03-22 18:47:00,
2013-03-22 19:48:00,54.1,46.7,29.93,West,278,0.0,0.0,76,0.00,CLR,,0.00,0.0,WeatherDisplay:10.37,2013-03-22 18:48:00,
2013-03-22 19:49:00,54.1,46.7,29.93,West,278,0.0,0.0,76,0.00,CLR,,0.00,0.0,WeatherDisplay:10.37,2013-03-22 18:49:00,
2013-03-22 19:52:00,54.0,47.0,29.93,West,278,2.3,2.3,77,0.00,CLR,,0.00,0.0,WeatherDisplay:10.37,2013-03-22 18:52:00,
2013-03-22 19:53:00,54.0,47.0,29.93,West,278,2.3,2.3,77,0.00,CLR,,0.00,0.0,WeatherDisplay:10.37,2013-03-22 18:53:00,
2013-03-22 19:54:00,54.0,47.0,29.93,West,278,2.3,2.3,77,0.00,CLR,,0.00,0.0,WeatherDisplay:10.37,2013-03-22 18:54:00,
2013-03-22 19:57:00,53.9,46.9,29.93,West,278,0.0,0.0,77,0.00,CLR,,0.00,0.0,WeatherDisplay:10.37,2013-03-22 18:57:00,
2013-03-22 19:59:00,53.8,46.8,29.93,West,278,0.0,0.0,77,0.00,CLR,,0.00,0.0,WeatherDisplay:10.37,2013-03-22 18:59:00,
2013-03-22 20:02:00,53.7,46.7,29.93,West,278,2.3,2.3,77,0.00,CLR,,0.00,0.0,WeatherDisplay:10.37,2013-03-22 19:02:00,
2013-03-22 20:04:00,53.6,46.6,29.93,West,278,3.5,3.5,77,0.00,CLR,,0.00,0.0,WeatherDisplay:10.37,2013-03-22 19:04:00,
2013-03-22 20:07:00,53.5,46.8,29.93,WNW,283,3.5,3.5,78,0.00,CLR,,0.00,0.0,WeatherDisplay:10.37,2013-03-22 19:07:00,
2013-03-22 20:09:00,53.4,46.7,29.93,ENE,77,5.0,5.0,78,0.00,CLR,,0.00,0.0,WeatherDisplay:10.37,2013-03-22 19:09:00,
2013-03-22 20:10:00,53.4,46.7,29.93,ENE,77,4.6,4.6,78,0.00,CLR,,0.00,0.0,WeatherDisplay:10.37,2013-03-22 19:10:00,
2013-03-22 20:12:00,53.3,46.6,29.93,ENE,78,4.6,4.6,78,0.00,CLR,,0.00,0.0,WeatherDisplay:10.37,2013-03-22 19:12:00,
2013-03-22 20:14:00,53.2,46.5,29.93,ENE,78,3.5,3.5,78,0.00,CLR,,0.00,0.0,WeatherDisplay:10.37,2013-03-22 19:14:00,
2013-03-22 20:15:00,53.2,46.5,29.93,ENE,78,3.5,3.5,78,0.00,CLR,,0.00,0.0,WeatherDisplay:10.37,2013-03-22 19:15:00,
2013-03-22 20:17:00,53.1,46.4,29.94,ENE,78,2.3,0.0,78,0.00,CLR,,0.00,0.0,WeatherDisplay:10.37,2013-03-22 19:17:00,
2013-03-22 20:20:00,53.0,46.7,29.93,ENE,78,1.0,0.0,79,0.00,CLR,,0.00,0.0,WeatherDisplay:10.37,2013-03-22 19:20:00,
2013-03-22 20:22:00,52.9,46.6,29.93,ENE,78,2.3,0.0,79,0.00,CLR,,0.00,0.0,WeatherDisplay:10.37,2013-03-22 19:22:00,
2013-03-22 20:25:00,52.9,46.6,29.93,ENE,78,2.0,2.0,79,0.00,CLR,,0.00,0.0,WeatherDisplay:10.37,2013-03-22 19:25:00,
2013-03-22 20:28:00,52.9,46.6,29.93,ENE,78,1.1,1.1,79,0.00,CLR,,0.00,0.0,WeatherDisplay:10.37,2013-03-22 19:28:00,
2013-03-22 20:30:00,52.8,46.5,29.94,ENE,78,2.3,0.0,79,0.00,CLR,,0.00,0.0,WeatherDisplay:10.37,2013-03-22 19:30:00,
2013-03-22 20:33:00,52.7,46.4,29.94,ENE,78,1.1,0.0,79,0.00,CLR,,0.00,0.0,WeatherDisplay:10.37,2013-03-22 19:33:00,
2013-03-22 20:35:00,52.7,46.4,29.93,ENE,78,0.0,0.0,79,0.00,CLR,,0.00,0.0,WeatherDisplay:10.37,2013-03-22 19:35:00,
2013-03-22 20:38:00,52.6,46.3,29.94,ENE,78,0.0,0.0,79,0.00,CLR,,0.00,0.0,WeatherDisplay:10.37,2013-03-22 19:38:00,
2013-03-22 20:40:00,52.6,46.6,29.94,ENE,78,0.0,0.0,80,0.00,CLR,,0.00,0.0,WeatherDisplay:10.37,2013-03-22 19:40:00,
2013-03-22 20:43:00,52.6,46.6,29.94,ENE,78,2.3,2.3,80,0.00,CLR,,0.00,0.0,WeatherDisplay:10.37,2013-03-22 19:43:00,
2013-03-22 20:45:00,52.5,46.5,29.94,ENE,78,0.0,0.0,80,0.00,CLR,,0.00,0.0,WeatherDisplay:10.37,2013-03-22 19:45:00,
2013-03-22 20:46:00,52.5,46.5,29.94,ENE,78,0.0,0.0,80,0.00,CLR,,0.00,0.0,WeatherDisplay:10.37,2013-03-22 19:46:00,
2013-03-22 20:48:00,52.4,46.4,29.94,ENE,78,0.0,0.0,80,0.00,CLR,,0.00,0.0,WeatherDisplay:10.37,2013-03-22 19:48:00,
2013-03-22 20:50:00,52.3,46.3,29.94,ENE,78,0.0,0.0,80,0.00,CLR,,0.00,0.0,WeatherDisplay:10.37,2013-03-22 19:50:00,
2013-03-22 20:51:00,52.3,46.3,29.94,ENE,78,2.3,2.3,80,0.00,CLR,,0.00,0.0,WeatherDisplay:10.37,2013-03-22 19:51:00,
2013-03-22 20:53:00,52.1,46.1,29.93,ENE,78,2.3,2.3,80,0.00,CLR,,0.00,0.0,WeatherDisplay:10.37,2013-03-22 19:53:00,
2013-03-22 20:55:00,52.0,46.0,29.93,ENE,78,3.5,3.5,80,0.00,CLR,,0.00,0.0,WeatherDisplay:10.37,2013-03-22 19:55:00,
2013-03-22 20:56:00,52.0,46.0,29.94,ENE,78,4.0,4.0,80,0.00,CLR,,0.00,0.0,WeatherDisplay:10.37,2013-03-22 19:56:00,
2013-03-22 20:58:00,51.9,45.9,29.93,ENE,78,3.5,3.5,80,0.00,CLR,,0.00,0.0,WeatherDisplay:10.37,2013-03-22 19:58:00,
2013-03-22 21:00:00,51.7,45.7,29.94,ENE,78,3.5,3.5,80,0.00,CLR,,0.00,0.0,WeatherDisplay:10.37,2013-03-22 20:00:00,
2013-03-22 21:01:00,51.7,45.7,29.94,ENE,78,2.3,2.3,80,0.00,CLR,,0.00,0.0,WeatherDisplay:10.37,2013-03-22 20:01:00,
2013-03-22 21:03:00,51.6,45.6,29.94,ENE,78,3.5,3.5,80,0.00,CLR,,0.00,0.0,WeatherDisplay:10.37,2013-03-22 20:03:00,
2013-03-22 21:05:00,51.6,46.0,29.94,ENE,75,3.5,3.5,81,0.00,CLR,,0.00,0.0,WeatherDisplay:10.37,2013-03-22 20:05:00,
2013-03-22 21:06:00,51.5,45.9,29.94,ENE,75,3.5,3.5,81,0.00,CLR,,0.00,0.0,WeatherDisplay:10.37,2013-03-22 20:06:00,
2013-03-22 21:08:00,51.5,45.9,29.94,ENE,75,2.3,2.3,81,0.00,CLR,,0.00,0.0,WeatherDisplay:10.37,2013-03-22 20:08:00,
2013-03-22 21:10:00,51.4,45.8,29.94,ENE,75,2.3,2.3,81,0.00,CLR,,0.00,0.0,WeatherDisplay:10.37,2013-03-22 20:10:00,
2013-03-22 21:11:00,51.4,45.8,29.94,ENE,75,2.3,0.0,81,0.00,CLR,,0.00,0.0,WeatherDisplay:10.37,2013-03-22 20:11:00,
2013-03-22 21:12:00,51.4,45.8,29.94,ENE,75,0.0,0.0,81,0.00,CLR,,0.00,0.0,WeatherDisplay:10.37,2013-03-22 20:12:00,
2013-03-22 21:13:00,51.3,45.7,29.94,ENE,75,3.0,3.0,81,0.00,CLR,,0.00,0.0,WeatherDisplay:10.37,2013-03-22 20:13:00,
2013-03-22 21:15:00,51.3,45.7,29.93,ENE,75,3.5,3.5,81,0.00,CLR,,0.00,0.0,WeatherDisplay:10.37,2013-03-22 20:15:00,
2013-03-22 21:16:00,51.3,45.7,29.94,ENE,75,2.3,2.3,81,0.00,CLR,,0.00,0.0,WeatherDisplay:10.37,2013-03-22 20:16:00,
2013-03-22 21:17:00,51.3,45.7,29.94,ENE,75,3.5,3.5,81,0.00,CLR,,0.00,0.0,WeatherDisplay:10.37,2013-03-22 20:17:00,
2013-03-22 21:19:00,51.2,45.6,29.94,ENE,75,3.5,3.5,81,0.00,CLR,,0.00,0.0,WeatherDisplay:10.37,2013-03-22 20:19:00,
2013-03-22 21:20:00,51.2,45.6,29.94,ENE,75,1.1,0.0,81,0.00,CLR,,0.00,0.0,WeatherDisplay:10.37,2013-03-22 20:20:00,
2013-03-22 21:21:00,51.2,45.6,29.94,ENE,75,2.0,2.0,81,0.00,CLR,,0.00,0.0,WeatherDisplay:10.37,2013-03-22 20:21:00,
2013-03-22 21:22:00,51.2,45.6,29.94,ENE,75,3.5,3.5,81,0.00,CLR,,0.00,0.0,WeatherDisplay:10.37,2013-03-22 20:22:00,
2013-03-22 21:24:00,51.1,45.8,29.93,ENE,75,3.5,3.5,82,0.00,CLR,,0.00,0.0,WeatherDisplay:10.37,2013-03-22 20:24:00,
2013-03-22 21:25:00,51.2,45.9,29.94,ENE,75,3.5,3.5,82,0.00,CLR,,0.00,0.0,WeatherDisplay:10.37,2013-03-22 20:25:00,
2013-03-22 21:27:00,51.1,45.8,29.94,ENE,76,3.5,3.5,82,0.00,CLR,,0.00,0.0,WeatherDisplay:10.37,2013-03-22 20:27:00,
2013-03-22 21:29:00,51.1,45.8,29.94,ENE,74,3.5,0.0,82,0.00,CLR,,0.00,0.0,WeatherDisplay:10.37,2013-03-22 20:29:00,
2013-03-22 21:30:00,51.1,45.8,29.94,ENE,74,0.0,0.0,82,0.00,CLR,,0.00,0.0,WeatherDisplay:10.37,2013-03-22 20:30:00,
2013-03-22 21:32:00,51.1,45.8,29.94,ENE,74,0.0,0.0,82,0.00,CLR,,0.00,0.0,WeatherDisplay:10.37,2013-03-22 20:32:00,
2013-03-22 21:35:00,51.1,45.8,29.94,ENE,74,3.5,3.5,82,0.00,CLR,,0.00,0.0,WeatherDisplay:10.37,2013-03-22 20:35:00,
2013-03-22 21:37:00,51.0,45.7,29.93,ENE,74,3.5,3.5,82,0.00,CLR,,0.00,0.0,WeatherDisplay:10.37,2013-03-22 20:37:00,
2013-03-22 21:38:00,51.0,45.7,29.94,ENE,74,3.5,3.5,82,0.00,CLR,,0.00,0.0,WeatherDisplay:10.37,2013-03-22 20:38:00,
2013-03-22 21:40:00,51.0,45.7,29.94,ENE,74,3.5,3.5,82,0.00,CLR,,0.00,0.0,WeatherDisplay:10.37,2013-03-22 20:40:00,
2013-03-22 21:43:00,50.9,45.6,29.93,ENE,75,3.5,3.5,82,0.00,CLR,,0.00,0.0,WeatherDisplay:10.37,2013-03-22 20:43:00,
2013-03-22 21:45:00,50.8,45.5,29.94,ENE,75,3.5,3.5,82,0.00,CLR,,0.00,0.0,WeatherDisplay:10.37,2013-03-22 20:45:00,
2013-03-22 21:46:00,50.8,45.5,29.94,ENE,75,3.5,3.5,82,0.00,CLR,,0.00,0.0,WeatherDisplay:10.37,2013-03-22 20:46:00,
2013-03-22 21:48:00,50.7,45.4,29.94,ENE,75,3.5,0.0,82,0.00,CLR,,0.00,0.0,WeatherDisplay:10.37,2013-03-22 20:48:00,
2013-03-22 21:49:00,50.7,45.4,29.94,ENE,75,0.0,0.0,82,0.00,CLR,,0.00,0.0,WeatherDisplay:10.37,2013-03-22 20:49:00,
2013-03-22 21:51:00,50.6,45.3,29.94,ENE,75,2.3,2.3,82,0.00,CLR,,0.00,0.0,WeatherDisplay:10.37,2013-03-22 20:51:00,
2013-03-22 21:53:00,50.6,45.3,29.94,ENE,75,0.0,0.0,82,0.00,CLR,,0.00,0.0,WeatherDisplay:10.37,2013-03-22 20:53:00,
2013-03-22 21:54:00,50.5,45.2,29.93,ENE,75,0.0,0.1,82,0.00,CLR,,0.00,0.0,WeatherDisplay:10.37,2013-03-22 20:54:00,
2013-03-22 21:56:00,50.5,45.5,29.93,ENE,75,3.5,3.5,83,0.00,CLR,,0.00,0.0,WeatherDisplay:10.37,2013-03-22 20:56:00,
2013-03-22 21:57:00,50.5,45.5,29.94,ENE,75,0.0,0.0,83,0.00,CLR,,0.00,0.0,WeatherDisplay:10.37,2013-03-22 20:57:00,
2013-03-22 21:58:00,50.5,45.5,29.94,ENE,75,0.0,0.0,83,0.00,CLR,,0.00,0.0,WeatherDisplay:10.37,2013-03-22 20:58:00,
2013-03-22 21:59:00,50.5,45.5,29.94,ENE,75,0.0,0.0,83,0.00,CLR,,0.00,0.0,WeatherDisplay:10.37,2013-03-22 20:59:00,
2013-03-22 22:01:00,50.4,45.4,29.94,ENE,75,2.3,2.3,83,0.00,CLR,,0.00,0.0,WeatherDisplay:10.37,2013-03-22 21:01:00,
2013-03-22 22:02:00,50.4,45.4,29.94,ENE,75,0.0,0.0,83,0.00,CLR,,0.00,0.0,WeatherDisplay:10.37,2013-03-22 21:02:00,
2013-03-22 22:04:00,50.4,45.4,29.94,ENE,75,0.0,0.0,83,0.00,CLR,,0.00,0.0,WeatherDisplay:10.37,2013-03-22 21:04:00,
2013-03-22 22:06:00,50.3,45.3,29.94,ENE,75,0.0,0.0,83,0.00,CLR,,0.00,0.0,WeatherDisplay:10.37,2013-03-22 21:06:00,
2013-03-22 22:07:00,50.3,45.3,29.94,ENE,75,0.0,0.0,83,0.00,CLR,,0.00,0.0,WeatherDisplay:10.37,2013-03-22 21:07:00,
2013-03-22 22:09:00,50.3,45.3,29.94,ENE,75,0.0,0.0,83,0.00,CLR,,0.00,0.0,WeatherDisplay:10.37,2013-03-22 21:09:00,
2013-03-22 22:11:00,50.2,45.2,29.94,ENE,75,0.0,0.0,83,0.00,CLR,,0.00,0.0,WeatherDisplay:10.37,2013-03-22 21:11:00,
2013-03-22 22:12:00,50.2,45.2,29.94,ENE,75,0.0,0.0,83,0.00,CLR,,0.00,0.0,WeatherDisplay:10.37,2013-03-22 21:12:00,
2013-03-22 22:14:00,50.1,45.1,29.94,ENE,75,2.3,2.3,83,0.00,CLR,,0.00,0.0,WeatherDisplay:10.37,2013-03-22 21:14:00,
2013-03-22 22:16:00,50.1,45.1,29.94,ENE,75,0.0,0.0,83,0.00,CLR,,0.00,0.0,WeatherDisplay:10.37,2013-03-22 21:16:00,
2013-03-22 22:18:00,50.1,45.1,29.94,ENE,75,0.0,0.0,83,0.00,CLR,,0.00,0.0,WeatherDisplay:10.37,2013-03-22 21:18:00,
2013-03-22 22:19:00,50.0,45.0,29.94,ENE,75,0.0,0.0,83,0.00,CLR,,0.00,0.0,WeatherDisplay:10.37,2013-03-22 21:19:00,
2013-03-22 22:21:00,50.0,45.0,29.94,ENE,75,0.0,0.0,83,0.00,CLR,,0.00,0.0,WeatherDisplay:10.37,2013-03-22 21:21:00,
2013-03-22 22:23:00,50.0,45.0,29.94,ENE,75,0.0,0.0,83,0.00,CLR,,0.00,0.0,WeatherDisplay:10.37,2013-03-22 21:23:00,
2013-03-22 22:24:00,50.0,45.0,29.93,ENE,75,2.3,2.3,83,0.00,CLR,,0.00,0.0,WeatherDisplay:10.37,2013-03-22 21:24:00,
2013-03-22 22:27:00,49.9,44.9,29.93,ENE,75,2.3,2.3,83,0.00,CLR,,0.00,0.0,WeatherDisplay:10.37,2013-03-22 21:27:00,
2013-03-22 22:28:00,49.9,44.9,29.93,ENE,75,2.3,2.3,83,0.00,CLR,,0.00,0.0,WeatherDisplay:10.37,2013-03-22 21:28:00,
2013-03-22 22:29:00,49.9,44.9,29.94,ENE,75,0.0,0.0,83,0.00,CLR,,0.00,0.0,WeatherDisplay:10.37,2013-03-22 21:29:00,
2013-03-22 22:32:00,49.8,44.8,29.93,ENE,75,0.0,0.0,83,0.00,CLR,,0.00,0.0,WeatherDisplay:10.37,2013-03-22 21:32:00,
2013-03-22 22:33:00,49.8,44.8,29.93,ENE,75,0.0,0.0,83,0.00,CLR,,0.00,0.0,WeatherDisplay:10.37,2013-03-22 21:33:00,
2013-03-22 22:34:00,49.7,44.7,29.93,ENE,75,2.3,2.3,83,0.00,CLR,,0.00,0.0,WeatherDisplay:10.37,2013-03-22 21:34:00,
2013-03-22 22:35:00,49.7,44.7,29.94,ENE,75,2.3,0.0,83,0.00,CLR,,0.00,0.0,WeatherDisplay:10.37,2013-03-22 21:35:00,
2013-03-22 22:37:00,49.7,44.7,29.94,ENE,75,0.0,0.0,83,0.00,CLR,,0.00,0.0,WeatherDisplay:10.37,2013-03-22 21:37:00,
2013-03-22 22:38:00,49.7,44.7,29.94,ENE,75,0.0,0.0,83,0.00,CLR,,0.00,0.0,WeatherDisplay:10.37,2013-03-22 21:38:00,
2013-03-22 22:39:00,49.6,44.6,29.94,ENE,75,0.0,0.0,83,0.00,CLR,,0.00,0.0,WeatherDisplay:10.37,2013-03-22 21:39:00,
2013-03-22 22:40:00,49.6,44.6,29.94,ENE,75,0.0,0.0,83,0.00,CLR,,0.00,0.0,WeatherDisplay:10.37,2013-03-22 21:40:00,
2013-03-22 22:42:00,49.6,44.6,29.94,ENE,75,0.0,0.0,83,0.00,CLR,,0.00,0.0,WeatherDisplay:10.37,2013-03-22 21:42:00,
2013-03-22 22:43:00,49.6,44.6,29.94,ENE,75,0.0,0.0,83,0.00,CLR,,0.00,0.0,WeatherDisplay:10.37,2013-03-22 21:43:00,
2013-03-22 22:44:00,49.6,44.6,29.94,ENE,75,0.0,0.0,83,0.00,CLR,,0.00,0.0,WeatherDisplay:10.37,2013-03-22 21:44:00,
2013-03-22 22:45:00,49.5,44.6,29.94,ENE,75,0.0,0.0,83,0.00,CLR,,0.00,0.0,WeatherDisplay:10.37,2013-03-22 21:45:00,
2013-03-22 22:48:00,49.5,44.6,29.94,ENE,75,0.0,0.0,83,0.00,CLR,,0.00,0.0,WeatherDisplay:10.37,2013-03-22 21:48:00,
2013-03-22 22:50:00,49.4,44.5,29.94,ENE,75,0.0,0.0,83,0.00,CLR,,0.00,0.0,WeatherDisplay:10.37,2013-03-22 21:50:00,
2013-03-22 22:51:00,49.4,44.5,29.94,ENE,75,0.0,0.0,83,0.00,CLR,,0.00,0.0,WeatherDisplay:10.37,2013-03-22 21:51:00,
2013-03-22 22:53:00,49.4,44.5,29.94,ENE,75,0.0,0.0,83,0.00,CLR,,0.00,0.0,WeatherDisplay:10.37,2013-03-22 21:53:00,
2013-03-22 22:55:00,49.3,44.4,29.94,ENE,75,0.0,0.0,83,0.00,CLR,,0.00,0.0,WeatherDisplay:10.37,2013-03-22 21:55:00,
2013-03-22 22:56:00,49.3,44.4,29.94,ENE,75,0.0,0.0,83,0.00,CLR,,0.00,0.0,WeatherDisplay:10.37,2013-03-22 21:56:00,
2013-03-22 22:58:00,49.2,44.3,29.94,ENE,75,2.3,2.3,83,0.00,CLR,,0.00,0.0,WeatherDisplay:10.37,2013-03-22 21:58:00,
2013-03-22 23:00:00,49.2,44.6,29.94,ENE,75,3.5,3.5,84,0.00,CLR,,0.00,0.0,WeatherDisplay:10.37,2013-03-22 22:00:00,
2013-03-22 23:01:00,49.1,44.5,29.94,ENE,75,2.3,2.3,84,0.00,CLR,,0.00,0.0,WeatherDisplay:10.37,2013-03-22 22:01:00,
2013-03-22 23:03:00,49.1,44.5,29.94,ENE,75,0.0,0.0,84,0.00,CLR,,0.00,0.0,WeatherDisplay:10.37,2013-03-22 22:03:00,
2013-03-22 23:05:00,49.1,44.5,29.94,ENE,75,3.5,3.5,84,0.00,CLR,,0.00,0.0,WeatherDisplay:10.37,2013-03-22 22:05:00,
2013-03-22 23:07:00,49.1,44.5,29.94,ENE,75,3.5,3.5,84,0.00,CLR,,0.00,0.0,WeatherDisplay:10.37,2013-03-22 22:07:00,
2013-03-22 23:08:00,49.1,44.5,29.94,ENE,75,3.5,3.5,84,0.00,CLR,,0.00,0.0,WeatherDisplay:10.37,2013-03-22 22:08:00,
2013-03-22 23:09:00,49.1,44.5,29.94,ENE,75,2.3,2.3,84,0.00,CLR,,0.00,0.0,WeatherDisplay:10.37,2013-03-22 22:09:00,
2013-03-22 23:10:00,49.1,44.5,29.94,ENE,75,0.0,0.0,84,0.00,CLR,,0.00,0.0,WeatherDisplay:10.37,2013-03-22 22:10:00,
2013-03-22 23:12:00,49.1,44.5,29.94,ENE,75,0.0,0.0,84,0.00,CLR,,0.00,0.0,WeatherDisplay:10.37,2013-03-22 22:12:00,
2013-03-22 23:13:00,49.1,44.5,29.94,ENE,75,0.0,0.0,84,0.00,CLR,,0.00,0.0,WeatherDisplay:10.37,2013-03-22 22:13:00,
2013-03-22 23:14:00,49.1,44.5,29.94,ENE,75,0.0,0.0,84,0.00,CLR,,0.00,0.0,WeatherDisplay:10.37,2013-03-22 22:14:00,
2013-03-22 23:16:00,49.1,44.5,29.94,ENE,75,0.0,0.0,84,0.00,CLR,,0.00,0.0,WeatherDisplay:10.37,2013-03-22 22:16:00,
2013-03-22 23:17:00,49.1,44.5,29.94,ENE,75,2.3,2.3,84,0.00,CLR,,0.00,0.0,WeatherDisplay:10.37,2013-03-22 22:17:00,
2013-03-22 23:18:00,49.0,44.4,29.94,ENE,75,3.5,3.5,84,0.00,CLR,,0.00,0.0,WeatherDisplay:10.37,2013-03-22 22:18:00,
2013-03-22 23:19:00,49.0,44.4,29.94,ENE,75,4.0,4.0,84,0.00,CLR,,0.00,0.0,WeatherDisplay:10.37,2013-03-22 22:19:00,
2013-03-22 23:21:00,49.0,44.4,29.94,ENE,75,3.5,3.5,84,0.00,CLR,,0.00,0.0,WeatherDisplay:10.37,2013-03-22 22:21:00,
2013-03-22 23:22:00,49.0,44.4,29.94,ENE,75,1.1,0.0,84,0.00,CLR,,0.00,0.0,WeatherDisplay:10.37,2013-03-22 22:22:00,
2013-03-22 23:23:00,49.0,44.4,29.94,ENE,75,2.0,2.0,84,0.00,CLR,,0.00,0.0,WeatherDisplay:10.37,2013-03-22 22:23:00,
2013-03-22 23:24:00,48.9,44.3,29.94,ENE,75,2.3,2.3,84,0.00,CLR,,0.00,0.0,WeatherDisplay:10.37,2013-03-22 22:24:00,
2013-03-22 23:26:00,48.9,44.3,29.94,ENE,75,2.3,2.3,84,0.00,CLR,,0.00,0.0,WeatherDisplay:10.37,2013-03-22 22:26:00,
2013-03-22 23:27:00,48.9,44.3,29.95,ENE,75,2.3,2.3,84,0.00,CLR,,0.00,0.0,WeatherDisplay:10.37,2013-03-22 22:27:00,
2013-03-22 23:28:00,48.9,44.3,29.94,ENE,75,2.3,0.0,84,0.00,CLR,,0.00,0.0,WeatherDisplay:10.37,2013-03-22 22:28:00,
2013-03-22 23:30:00,48.8,44.2,29.94,ENE,75,0.0,0.0,84,0.00,CLR,,0.00,0.0,WeatherDisplay:10.37,2013-03-22 22:30:00,
2013-03-22 23:31:00,48.8,44.2,29.95,ENE,75,0.0,0.1,84,0.00,CLR,,0.00,0.0,WeatherDisplay:10.37,2013-03-22 22:31:00,
2013-03-22 23:32:00,48.8,44.5,29.95,ENE,75,1.1,0.0,85,0.00,CLR,,0.00,0.0,WeatherDisplay:10.37,2013-03-22 22:32:00,
2013-03-22 23:33:00,48.8,44.5,29.95,ENE,75,2.0,2.0,85,0.00,CLR,,0.00,0.0,WeatherDisplay:10.37,2013-03-22 22:33:00,
2013-03-22 23:35:00,48.7,44.4,29.95,ENE,75,2.3,2.3,85,0.00,CLR,,0.00,0.0,WeatherDisplay:10.37,2013-03-22 22:35:00,
2013-03-22 23:37:00,48.7,44.4,29.94,ENE,75,3.5,3.5,85,0.00,CLR,,0.00,0.0,WeatherDisplay:10.37,2013-03-22 22:37:00,
2013-03-22 23:38:00,48.7,44.4,29.94,ENE,75,3.5,3.5,85,0.00,CLR,,0.00,0.0,WeatherDisplay:10.37,2013-03-22 22:38:00,
2013-03-22 23:40:00,48.7,44.4,29.95,ENE,75,2.3,2.3,85,0.00,CLR,,0.00,0.0,WeatherDisplay:10.37,2013-03-22 22:40:00,
2013-03-22 23:42:00,48.6,44.3,29.95,ENE,75,0.0,0.0,85,0.00,CLR,,0.00,0.0,WeatherDisplay:10.37,2013-03-22 22:42:00,
2013-03-22 23:44:00,48.6,44.3,29.95,ENE,75,0.0,0.0,85,0.00,CLR,,0.00,0.0,WeatherDisplay:10.37,2013-03-22 22:44:00,
2013-03-22 23:45:00,48.6,44.3,29.95,ENE,75,0.0,0.0,85,0.00,CLR,,0.00,0.0,WeatherDisplay:10.37,2013-03-22 22:45:00,
2013-03-22 23:47:00,48.6,44.3,29.95,ENE,75,2.0,2.0,85,0.00,CLR,,0.00,0.0,WeatherDisplay:10.37,2013-03-22 22:47:00,
2013-03-22 23:49:00,48.6,44.3,29.94,ENE,75,2.3,2.3,85,0.00,CLR,,0.00,0.0,WeatherDisplay:10.37,2013-03-22 22:49:00,
2013-03-22 23:50:00,48.6,44.3,29.95,ENE,75,3.5,3.5,85,0.00,CLR,,0.00,0.0,WeatherDisplay:10.37,2013-03-22 22:50:00,
2013-03-22 23:52:00,48.5,44.2,29.94,ENE,75,0.0,0.0,85,0.00,CLR,,0.00,0.0,WeatherDisplay:10.37,2013-03-22 22:52:00,
2013-03-22 23:53:00,48.5,44.2,29.95,ENE,75,0.0,0.0,85,0.00,CLR,,0.00,0.0,WeatherDisplay:10.37,2013-03-22 22:53:00,
2013-03-22 23:54:00,48.5,44.2,29.95,ENE,75,4.0,4.0,85,0.00,CLR,,0.00,0.0,WeatherDisplay:10.37,2013-03-22 22:54:00,
2013-03-22 23:55:00,48.5,44.2,29.95,ENE,77,4.6,4.6,85,0.00,CLR,,0.00,0.0,WeatherDisplay:10.37,2013-03-22 22:55:00,
2013-03-22 23:58:00,48.5,44.2,29.95,ENE,77,1.1,0.0,85,0.00,CLR,,0.00,0.0,WeatherDisplay:10.37,2013-03-22 22:58:00,
2013-03-22 23:59:00,48.5,44.2,29.95,ENE,77,0.0,0.0,85,0.00,CLR,,0.00,0.0,WeatherDisplay:10.37,2013-03-22 22:59:00,